                ,  0.671,  0.819,  0.966,  1.114,  1.262,  1.410,  1.558,  1.705,  1.853,  2.001,  2.149,  2.297,  2.445,  2.592,  2.740,  2.888,  3.036,  3.184,  3.331,  3.479,  3.627,  3.775,  3.923,  4.070,  4.218,  4.366,  4.514,  4.662,  4.809,  4.957,  5.105,  5.253,  5.401,  5.549,  5.696,  5.844,  5.992,  6.140,  6.288,  6.435,  6.583,  6.731,  6.879,  7.027,  7.174,  7.322,  7.470,  7.618,  7.766,  7.914,  8.061,  8.209,  8.357,  8.505,  8.653,  8.800,  8.948,  9.096,  9.244,  9.392,  9.539,  9.687,  9.835
2005/11/24 00:00,  999.0,   11.4,   12.8,  999.0,  999.0,  999.0,    7.3,  999.0,  999.0,   10.8,    9.0,  999.0,  999.0,   11.8,   15.0,   14.8,   15.4,   15.0,   16.8,   18.1,  999.0,   17.5,   18.0,  999.0,  999.0,  999.0,  999.0,  999.0,  999.0,  999.0,  999.0,  999.0,  999.0,  999.0,  999.0,  999.0,  999.0,  999.0,  999.0,  999.0,  999.0,  999.0,  999.0,  999.0,  999.0,  999.0,  999.0,  999.0,  999.0,  999.0,  999.0,  999.0,  999.0,  999.0,  999.0,  999.0,  999.0,  999.0,  999.0,  999.0,  999.0,  999.0,  999.0
2005/11/24 00:10,  999.0,    4.4,    5.1,    4.1,    6.2,    3.8,    6.0,   10.7,   11.3,    9.7,    8.4,  999.0,  999.0,   14.0,   14.6,   14.9,   15.4,   15.8,   17.8,   19.0,   19.0,   18.1,   18.3,  999.0,  999.0,  999.0,  999.0,  999.0,  999.0,  999.0,  999.0,  999.0,  999.0,  999.0,   55.0,   55.3,   54.9,   54.9,  999.0,  999.0,   55.0,   55.0,   55.0,   55.1,   55.0,  999.0,   55.2,   54.8,  999.0,   55.1,   55.0,   55.1,   55.1,   54.7,  999.0,   55.0,   55.2,  999.0,   55.0,  999.0,   55.1,  999.0,  999.0
2005/11/24 00:20,  999.0,    1.4,    0.9,    1.6,    3.0,  999.0,    5.3,    7.3,   10.6,   10.2,  999.0,  999.0,    9.8,   13.7,   14.7,   14.4,   14.9,   16.5,   18.2,   18.6,   18.7,   17.7,   17.8,   19.6,  999.0,  999.0,  999.0,  999.0,  999.0,  999.0,  999.0,  999.0,  999.0,  999.0,  999.0,   55.1,   54.3,  999.0,  999.0,  999.0,  999.0,  999.0,  999.0,  999.0,  999.0,   55.0,   54.9,  999.0,  999.0,   54.6,  999.0,   54.9,   55.1,  999.0,  999.0,  999.0,  999.0,  999.0,  999.0,  999.0,  999.0,  999.0,   54.7
2005/11/24 00:30,  999.0,    3.7,    3.0,    5.5,    0.9,   -1.0,    2.4,    7.1,    9.2,    9.0,    8.2,    7.5,  999.0,   12.4,   13.8,  999.0,   14.8,   17.9,   18.6,   18.1,  999.0,   17.8,   18.2,   19.9,  999.0,  999.0,  999.0,  999.0,  999.0,  999.0,  999.0,  999.0,  999.0,  999.0,  999.0,  999.0,   54.6,  999.0,   55.1,   54.9,   54.8,  999.0,   54.6,  999.0,   54.8,   54.7,   54.6,  999.0,   54.9,   54.9,  999.0,   54.8,   54.9,  999.0,   54.9,  999.0,  999.0,  999.0,  999.0,  999.0,   54.9,  999.0,  999.0
2005/11/24 00:40,  999.0,    3.7,    2.5,    3.4,   -0.3,  999.0,  999.0,    6.0,    8.7,  999.0,    8.0,  999.0,    8.0,   11.8,  999.0,   13.9,   17.2,   18.4,   18.6,   18.6,   17.7,   18.2,  999.0,  999.0,  999.0,  999.0,  999.0,  999.0,  999.0,  999.0,  999.0,  999.0,  999.0,  999.0,  999.0,  999.0,   50.1,  999.0,   49.5,  999.0,   49.8,   52.2,  999.0,  999.0,  999.0,  999.0,  999.0,  999.0,  999.0,  999.0,  999.0,   55.1,   52.5,  999.0,  999.0,  999.0,   51.4,  999.0,  999.0,  999.0,  999.0,  999.0,   53.1
2005/11/24 00:50,  999.0,    4.2,    0.7,  999.0,    5.1,  999.0,  999.0,    8.2,    8.1,    8.9,    8.0,    7.6,  999.0,   12.1,   13.5,   14.3,   16.9,   17.8,   18.5,   18.2,   17.9,   18.9,   22.4,   23.0,  999.0,  999.0,  999.0,  999.0,  999.0,  999.0,  999.0,  999.0,   55.0,   55.2,  999.0,   51.5,   54.8,   55.1,  999.0,   55.2,   55.0,   55.1,  999.0,   55.0,   55.1,   55.2,   55.2,   55.2,   55.1,   55.0,   55.1,   55.1,   54.9,   55.3,   55.1,   55.0,   55.0,   55.0,   55.3,   55.3,   55.1,   55.1,   55.3
2005/11/24 01:00,  999.0,    3.9,    1.1,    3.4,    6.3,  999.0,    5.7,    5.4,    6.7,    9.3,    7.7,    7.2,    7.8,   12.3,   13.8,   16.0,   17.4,   18.1,   18.3,   18.3,  999.0,  999.0,   22.0,  999.0,   24.3,  999.0,  999.0,  999.0,  999.0,  999.0,  999.0,   54.9,   54.9,   47.0,   55.2,  999.0,   54.7,   55.0,  999.0,   55.2,   55.0,   55.0,   54.9,  999.0,   55.0,   55.0,   54.8,   54.9,   55.2,   55.1,   55.1,   55.1,  999.0,   55.1,   55.0,  999.0,   54.8,   55.3,   55.0,  999.0,   55.1,  999.0,  999.0
2005/11/24 01:10,  999.0,    3.8,    3.1,    5.7,    6.4,  999.0,    4.2,    6.1,    3.4,  999.0,    7.1,    7.2,    8.1,   13.0,   13.9,   16.2,   17.9,   18.7,   18.8,  999.0,   17.2,   18.9,   22.8,   23.1,  999.0,  999.0,  999.0,  999.0,  999.0,  999.0,  999.0,  999.0,  999.0,   54.8,   49.9,   55.1,   48.2,   47.9,   48.2,   48.0,   55.1,   45.6,   55.1,  999.0,   51.4,   43.9,  999.0,   55.1,   55.2,   52.3,   52.5,   53.4,   55.2,   55.3,   49.6,   55.1,   55.3,   49.9,   36.6,   36.7,   51.6,  999.0,   55.0
2005/11/24 01:20,  999.0,  999.0,    6.3,    5.7,    6.2,    3.8,    2.8,    6.2,    4.6,    6.7,    8.4,    7.2,    7.4,   12.6,   14.0,   15.7,   17.1,  999.0,   19.2,  999.0,  999.0,   19.6,  999.0,  999.0,  999.0,  999.0,  999.0,  999.0,  999.0,  999.0,  999.0,  999.0,  999.0,  999.0,  999.0,   54.9,   54.9,   55.1,  999.0,   55.0,  999.0,   54.8,  999.0,   54.9,  999.0,   55.1,  999.0,  999.0,   55.0,   55.3,   54.8,   54.6,   55.2,  999.0,  999.0,  999.0,  999.0,  999.0,   55.1,  999.0,  999.0,   55.3,  999.0
2005/11/24 01:30,  999.0,    4.8,    6.2,    4.8,    6.9,    6.1,    8.4,    7.2,    6.0,    8.0,    9.3,    7.7,  999.0,   12.9,   13.9,   15.9,   18.1,   18.5,  999.0,  999.0,  999.0,   21.1,  999.0,  999.0,  999.0,  999.0,  999.0,  999.0,  999.0,  999.0,  999.0,  999.0,   55.0,   55.0,   54.9,   55.1,   55.1,   54.6,   55.0,   55.1,   55.2,   54.9,   54.8,   55.2,   55.0,   54.8,   54.8,   54.9,   55.1,   55.2,   55.1,   55.0,   55.0,   55.1,   55.2,   55.5,   55.4,   55.3,   55.3,   55.3,   55.1,  999.0,   55.3
2005/11/24 01:40,  999.0,    5.3,    6.1,    5.7,    7.7,    8.4,    8.1,    6.3,    5.9,    7.1,    9.0,    8.8,  999.0,  999.0,   13.3,   14.6,   17.8,   18.7,  999.0,  999.0,  999.0,  999.0,  999.0,  999.0,  999.0,  999.0,  999.0,   27.0,  999.0,  999.0,  999.0,   53.2,  999.0,   54.8,   52.2,   53.5,   54.9,   55.0,   54.8,   54.6,   55.1,   54.8,   55.1,   54.7,   54.8,   55.1,   54.9,   54.7,   54.8,   55.2,   54.9,   55.0,   54.9,   55.2,  999.0,   55.0,   55.0,   55.0,   55.0,   54.8,   55.0,  999.0,   55.4
2005/11/24 01:50,  999.0,    6.5,    6.3,  999.0,  999.0,    8.1,    7.4,  999.0,    6.2,    7.4,    8.1,    8.7,    8.8,   11.7,  999.0,   14.7,   17.9,   19.4,  999.0,  999.0,  999.0,  999.0,  999.0,  999.0,  999.0,  999.0,  999.0,  999.0,  999.0,  999.0,  999.0,  999.0,  999.0,  999.0,   49.8,   55.1,  999.0,   51.7,   55.1,   52.5,   55.1,   55.1,  999.0,   55.2,   55.1,   55.1,   51.8,   55.2,   55.1,   55.2,  999.0,   55.2,   55.1,   55.0,   55.1,   55.2,  999.0,   55.3,   55.3,   55.4,  999.0,   55.3,  999.0
2005/11/24 02:00,  999.0,    6.1,    5.4,    6.7,  999.0,    7.7,    7.2,    4.5,    5.9,    7.2,    9.0,    8.7,    9.8,   11.9,   14.1,   15.0,   17.4,  999.0,  999.0,  999.0,   19.2,   21.9,  999.0,   24.2,   26.4,  999.0,  999.0,  999.0,  999.0,  999.0,  999.0,  999.0,   55.0,  999.0,   49.8,  999.0,  999.0,   54.9,  999.0,  999.0,  999.0,  999.0,   44.0,  999.0,   54.8,   49.6,  999.0,   55.0,  999.0,   44.7,  999.0,   51.3,  999.0,   49.9,  999.0,  999.0,   17.0,  999.0,  999.0,  999.0,  999.0,  999.0,  999.0
2005/11/24 02:10,  999.0,    6.0,    6.0,    8.7,    7.1,    7.7,    6.9,  999.0,  999.0,    6.6,    7.8,    9.2,    9.8,  999.0,   13.6,  999.0,   16.8,  999.0,   19.8,  999.0,  999.0,   22.0,   23.4,  999.0,   23.0,  999.0,  999.0,  999.0,  999.0,  999.0,  999.0,  999.0,  999.0,  999.0,  999.0,  999.0,  999.0,  999.0,  999.0,  999.0,  999.0,  999.0,  999.0,  999.0,  999.0,  999.0,  999.0,  999.0,  999.0,  999.0,  999.0,  999.0,  999.0,  999.0,  999.0,  999.0,  999.0,  999.0,  999.0,  999.0,  999.0,  999.0,  999.0
2005/11/24 02:20,  999.0,    5.9,    6.4,    8.8,    7.1,    9.2,    7.5,    6.6,  999.0,    6.7,    7.9,    8.8,   10.1,   11.8,   13.5,   14.8,   16.3,   19.5,   19.6,  999.0,  999.0,   22.5,   22.6,   24.5,   25.6,   25.6,   28.2,  999.0,  999.0,  999.0,  999.0,  999.0,  999.0,  999.0,  999.0,  999.0,   44.7,  999.0,   44.7,  999.0,  999.0,  999.0,  999.0,  999.0,  999.0,  999.0,   39.5,  999.0,  999.0,  999.0,  999.0,  999.0,  999.0,   22.4,   39.0,  999.0,  999.0,  999.0,  999.0,  999.0,  999.0,  999.0,  999.0
2005/11/24 02:30,  999.0,  999.0,  999.0,    8.3,  999.0,    8.8,    7.6,    6.8,    6.9,    7.4,    8.1,    9.1,   10.3,   12.3,   13.5,   14.8,   17.2,   19.6,  999.0,  999.0,  999.0,   22.2,  999.0,  999.0,   25.4,   25.5,  999.0,  999.0,  999.0,  999.0,  999.0,  999.0,  999.0,  999.0,   55.0,   54.8,   54.8,   55.0,   55.0,   55.0,   55.1,   55.0,   54.9,   54.9,   51.4,   50.0,  999.0,   54.8,   55.0,   54.9,   55.0,   51.9,   55.2,   55.0,   55.1,  999.0,   55.0,   55.5,   54.9,   55.1,  999.0,  999.0,  999.0
2005/11/24 02:40,  999.0,  999.0,    4.6,    7.6,    9.4,    8.1,    8.9,    6.7,    7.2,    8.1,    8.3,    9.3,   10.3,   11.2,   13.7,   15.3,   17.8,   19.4,  999.0,  999.0,  999.0,   21.9,  999.0,  999.0,  999.0,  999.0,  999.0,  999.0,  999.0,  999.0,  999.0,  999.0,  999.0,  999.0,   55.2,   55.0,   55.0,   55.1,   55.1,   55.1,   55.0,   55.1,   55.1,   55.2,   55.1,   55.0,   55.1,   55.1,   55.1,   55.2,   55.1,   55.1,   55.1,   54.9,   55.0,   55.2,   55.2,   55.2,   55.2,   55.1,   55.3,   55.2,   55.1
2005/11/24 02:50,  999.0,  999.0,    3.3,    7.6,    8.5,    8.2,    6.2,    6.0,    6.1,    7.6,    8.0,    8.8,    9.7,   11.4,   13.4,   14.7,   17.4,   19.0,   19.2,  999.0,  999.0,   21.9,   22.0,   25.0,   26.5,   26.4,   27.9,  999.0,  999.0,  999.0,  999.0,  999.0,  999.0,  999.0,  999.0,  999.0,  999.0,  999.0,   54.6,   54.9,  999.0,   54.8,   54.9,  999.0,   55.1,   54.8,   54.7,   54.9,   55.2,  999.0,   54.8,   55.0,   55.0,   54.8,   54.9,   54.9,   54.5,   55.1,  999.0,  999.0,   55.2,   55.1,   55.0
2005/11/24 03:00,  999.0,    4.3,  999.0,  999.0,    8.2,    8.8,    7.4,  999.0,    6.7,    7.4,    8.1,    9.1,   10.1,   11.4,   13.7,   15.4,   18.2,   19.2,  999.0,  999.0,  999.0,  999.0,  999.0,   25.8,   27.2,  999.0,  999.0,  999.0,  999.0,  999.0,  999.0,  999.0,  999.0,  999.0,   54.9,   55.1,   55.0,   55.1,   55.1,   55.1,   55.2,   55.1,   55.1,   55.1,   55.1,   55.0,   55.1,   55.0,   55.1,   55.2,   55.1,   55.2,   55.2,   55.2,   55.2,   55.1,   55.3,   55.1,   55.2,   55.3,   55.4,   55.8,   54.8
2005/11/24 03:10,  999.0,    7.3,    8.9,    9.2,    9.6,    9.0,    7.1,    6.7,    6.7,    7.2,    8.0,    9.4,   10.2,   11.1,   12.8,   15.2,   18.0,   18.0,  999.0,  999.0,  999.0,  999.0,  999.0,   25.9,   27.9,   26.8,   27.9,   28.3,   28.8,  999.0,  999.0,  999.0,  999.0,  999.0,  999.0,  999.0,   55.0,   55.0,   55.1,   55.0,   55.0,   55.1,   55.0,   55.1,   55.1,   54.9,   55.2,   55.0,   55.1,   55.0,   55.0,   55.1,   55.0,   55.1,   54.9,   55.3,   55.2,   55.1,   55.1,  999.0,   55.1,  999.0,  999.0
2005/11/24 03:20,  999.0,    7.3,    8.6,    9.2,    9.3,    8.7,  999.0,  999.0,    6.6,    7.3,    8.1,    8.9,    9.2,   10.6,   11.6,   14.1,   16.9,   18.6,  999.0,  999.0,   20.9,  999.0,  999.0,   25.2,   26.4,   27.1,   27.3,   26.5,   28.0,   28.7,  999.0,  999.0,  999.0,  999.0,  999.0,   55.0,   54.7,   55.0,   54.6,   54.9,  999.0,   54.9,   55.0,   55.1,   54.5,   54.9,   55.1,   55.2,   55.2,   54.7,   54.9,  999.0,   55.0,   54.8,  999.0,   55.1,  999.0,   54.9,   55.0,   55.3,   55.0,  999.0,   55.0
2005/11/24 03:30,  999.0,    7.1,    7.5,  999.0,    8.4,    8.6,    7.6,    7.2,    6.3,    6.5,    7.2,    8.0,    8.0,    8.9,   11.5,   14.0,   17.5,   18.1,  999.0,  999.0,  999.0,  999.0,   23.4,   26.2,   27.6,   28.1,   28.3,   28.6,  999.0,  999.0,  999.0,  999.0,  999.0,  999.0,  999.0,   55.1,   55.1,   55.0,   55.1,   55.1,   55.1,   55.0,   55.1,   55.2,   55.1,   55.2,   55.2,   55.0,   55.2,   55.1,   55.1,   55.2,   55.1,   55.0,   55.2,   55.2,   55.3,   55.2,   55.5,   55.0,   55.1,   55.0,   55.3
2005/11/24 03:40,  999.0,    7.7,    8.2,    8.7,  999.0,    9.2,    7.5,    6.7,    6.7,    7.5,    7.9,    8.4,    8.2,    8.9,   11.5,   14.3,   17.8,   18.7,   18.5,   18.8,   19.9,   21.6,   22.7,   24.7,   26.7,   27.7,   27.9,   28.4,   29.2,  999.0,  999.0,  999.0,  999.0,  999.0,  999.0,  999.0,  999.0,   55.2,   55.2,   55.1,   55.1,   55.0,  999.0,   55.0,   53.2,   51.4,  999.0,   52.4,  999.0,   55.1,   55.4,   49.6,  999.0,   55.1,  999.0,   53.4,   55.1,   53.3,  999.0,  999.0,   55.3,  999.0,  999.0
2005/11/24 03:50,  999.0,    6.9,    8.0,    9.2,    9.2,    8.6,    6.8,    5.5,    6.2,    7.3,    9.2,  999.0,    8.0,    7.9,   11.5,   14.6,   18.3,   19.0,   19.3,   19.9,   21.2,   22.3,   22.8,   24.5,   27.1,   28.0,   27.9,   29.2,   30.1,  999.0,  999.0,  999.0,  999.0,  999.0,  999.0,  999.0,   55.0,   55.0,   55.0,   55.1,   55.0,   55.1,   55.1,   55.1,   55.0,   55.0,   55.2,   55.1,   55.1,   55.4,   55.2,   55.2,   55.2,   55.2,   55.2,   55.3,   55.2,   55.3,   55.2,   55.2,   55.4,   55.1,   55.1
2005/11/24 04:00,  999.0,    7.7,    8.1,    9.2,    9.5,    8.7,    6.4,    5.5,    6.4,    7.9,    9.2,   10.3,    9.0,    8.2,   11.1,   15.6,   18.7,   19.0,  999.0,  999.0,   20.9,   22.1,   23.2,   25.3,   26.6,   27.6,   29.5,   30.5,   31.9,   33.1,  999.0,  999.0,  999.0,  999.0,   54.8,  999.0,   55.0,   54.8,   55.1,   55.1,   55.2,   54.9,   54.9,   55.0,   55.1,   55.1,   55.0,   55.2,   55.1,   55.0,   55.1,   55.2,  999.0,  999.0,  999.0,   55.2,   55.0,   55.1,   55.0,  999.0,   55.1,   55.1,   55.1
2005/11/24 04:10,  999.0,    7.5,    8.2,    8.8,    9.6,    8.9,    7.3,    6.0,    6.6,    8.3,   10.0,   10.6,    9.7,  999.0,  999.0,   17.0,   19.9,   19.9,   20.3,   20.3,   21.9,   23.0,   23.5,   24.9,   26.7,   28.0,  999.0,  999.0,  999.0,  999.0,  999.0,  999.0,  999.0,  999.0,   55.1,   55.1,   55.2,   55.1,   55.1,   55.1,   55.1,   55.1,   55.2,   55.2,   55.2,   55.2,   55.2,   55.2,   55.1,   55.2,   55.2,   55.3,   55.0,   55.2,   55.2,   55.3,   55.1,   55.2,   55.1,   54.9,   55.5,   55.4,  999.0
2005/11/24 04:20,  999.0,    8.0,    8.8,    9.5,    9.1,    9.2,    6.8,    5.9,    7.3,    8.5,   10.0,  999.0,   10.3,   10.0,   11.4,   14.8,   19.1,   20.3,   20.2,  999.0,   22.0,   22.0,  999.0,   24.2,   26.7,   28.4,   28.9,   29.8,  999.0,  999.0,  999.0,  999.0,  999.0,  999.0,  999.0,  999.0,   54.8,  999.0,   55.1,   55.0,   55.1,   55.0,   54.9,   54.7,   55.1,   55.0,   55.0,  999.0,   55.1,   55.0,  999.0,   55.1,   55.0,   55.1,   55.0,   55.0,  999.0,  999.0,   55.0,   55.4,   55.1,   55.1,   55.2
2005/11/24 04:30,  999.0,    7.9,    8.2,    9.1,  999.0,    8.8,    6.9,  999.0,    7.4,    9.6,   10.3,   10.3,   10.4,   10.4,   13.3,   15.9,   19.7,  999.0,  999.0,  999.0,   22.2,   22.4,   22.8,   25.3,   27.7,   28.4,   28.9,   29.5,   29.5,   30.1,  999.0,  999.0,  999.0,  999.0,  999.0,  999.0,   55.0,  999.0,   54.9,   55.0,   55.0,   54.9,   55.0,   55.2,   55.0,   55.0,   55.2,   55.1,   55.0,   55.0,   54.9,   55.2,   55.1,   55.0,   54.9,   55.2,   55.3,   55.0,   55.2,   55.2,  999.0,   55.3,   55.1
2005/11/24 04:40,  999.0,    7.6,    8.2,    9.5,    9.9,    8.8,    7.4,    6.9,    8.8,    9.6,   10.3,  999.0,   10.4,   12.1,   15.5,   17.4,   19.3,  999.0,  999.0,   21.9,   21.6,   22.9,   22.6,   25.4,   26.8,   27.8,   29.6,   29.7,   30.1,   30.7,   33.1,  999.0,  999.0,  999.0,  999.0,  999.0,   55.1,   55.3,   55.3,   55.0,   55.1,   55.0,   55.1,   55.2,   55.2,   55.1,  999.0,   55.0,   55.1,   55.1,  999.0,   55.1,   55.2,   55.3,   55.2,   55.1,  999.0,   55.1,   55.2,   55.3,   55.0,   55.2,  999.0
2005/11/24 04:50,  999.0,    8.1,    8.8,    9.4,   10.3,   10.0,    8.4,    6.9,    7.5,    8.8,    9.3,   10.5,   11.0,   11.5,   15.0,   17.7,  999.0,  999.0,   21.1,   20.7,   20.6,   21.0,   21.9,   23.8,   25.4,   27.6,   29.6,   30.0,   30.2,   30.8,   32.4,  999.0,  999.0,  999.0,  999.0,  999.0,   55.0,   54.9,   55.1,   55.1,   55.1,   55.2,   55.1,   55.0,   55.1,   54.8,   55.1,   55.0,   55.0,   55.0,   55.0,   55.1,   55.0,   55.2,   55.0,   55.1,   54.9,   55.1,   55.0,   55.3,  999.0,   55.1,   55.1
2005/11/24 05:00,  999.0,    4.1,    4.6,    2.6,    5.3,    3.0,    3.0,    2.9,    2.9,    4.9,    5.9,    5.8,  999.0,  999.0,  999.0,  999.0,  999.0,  999.0,  999.0,   19.8,  999.0,   28.0,   30.0,  999.0,   29.9,   32.8,   34.4,   34.8,   35.1,   31.8,  999.0,  999.0,  999.0,  999.0,  999.0,  999.0,    0.1,  999.0,  -18.3,  -18.3,  -18.3,   11.0,    0.0,   11.1,   11.1,   -0.0,   18.3,   10.9,    0.0,   -0.2,    0.0,  -18.4,   -0.2,   -0.1,   11.1,   -0.2,   18.4,  -18.5,   55.3,   18.2,  -18.4,   18.2,   18.0
2005/11/24 05:10,  999.0,   -2.8,   -5.0,   -5.3,   -5.9,   -4.1,   -3.0,   -3.0,   -2.7,   -3.1,   -3.0,   -3.2,   -2.9,   -3.8,  999.0,   -7.2,  999.0,  999.0,  -10.1,  999.0,  999.0,  999.0,  999.0,  999.0,  999.0,  999.0,  999.0,  999.0,  999.0,  999.0,  999.0,  999.0,  999.0,  999.0,  999.0,  -55.0,  -55.0,  -55.1,  -55.2,  -55.1,  -55.2,  -54.9,  -55.1,  -55.2,  999.0,  -55.1,  -55.1,  -55.2,  -55.2,  -55.3,  -55.1,  -55.2,  -55.1,  -55.2,  -55.1,  -55.2,  -55.2,  -55.1,  -55.3,  -55.1,  -55.4,  -55.1,  -55.4
2005/11/24 05:20,  999.0,   -3.2,   -5.6,   -5.3,   -4.2,   -3.9,   -3.3,   -3.3,   -3.2,   -3.1,   -3.2,   -3.1,   -3.2,   -4.8,  999.0,  999.0,  999.0,   -8.6,   -9.6,  999.0,  -11.7,  -12.1,  -11.2,  -12.1,  -13.7,  -14.9,  999.0,  999.0,  999.0,  999.0,  999.0,  999.0,  999.0,  999.0,  999.0,  -55.1,  -55.1,  -55.1,  -55.1,  -55.1,  -55.1,  -55.1,  -55.0,  -55.1,  -55.2,  -55.1,  -55.2,  -55.2,  -55.1,  -55.2,  -55.2,  -55.3,  -55.2,  -55.2,  -55.1,  -55.2,  -55.2,  -55.2,  -55.1,  999.0,  -55.3,  -55.1,  -55.1
2005/11/24 05:30,  999.0,   -3.4,   -5.6,   -4.0,   -3.8,   -3.6,   -3.2,   -3.4,   -3.4,   -3.0,   -3.1,   -3.2,   -2.9,   -4.1,   -6.1,   -5.7,   -8.4,   -9.6,  -10.7,  -11.5,  -11.5,  -11.8,  -10.9,  -12.2,  -13.9,  -14.7,  999.0,  999.0,  999.0,  999.0,  999.0,  -44.6,  999.0,  999.0,  -55.0,  -55.0,  -55.2,  -55.1,  -55.1,  -55.1,  -55.0,  -55.1,  -55.0,  -55.1,  -55.2,  -55.0,  -55.0,  -55.1,  -55.2,  -55.1,  -55.1,  -55.1,  -55.1,  -55.2,  -55.0,  -55.1,  -55.2,  -55.2,  -55.3,  -55.2,  -55.2,  -55.2,  -55.5
2005/11/24 05:40,  999.0,   -4.6,   -5.3,   -5.3,   -4.2,   -4.0,   -3.3,   -2.9,   -2.8,   -2.6,   -2.8,   -3.3,   -3.8,   -5.5,   -6.2,   -6.5,   -8.0,   -9.9,  -10.9,  -11.0,  -11.0,  -11.4,  -10.7,  -11.8,  -13.5,  -13.9,  -15.6,  -18.1,  -18.7,  -19.3,  999.0,  999.0,  999.0,  999.0,  999.0,  999.0,  999.0,  -55.2,  -55.1,  -55.1,  -55.1,  -55.1,  -55.2,  -55.2,  -55.1,  -55.1,  -55.1,  -55.3,  -55.2,  -55.2,  -55.2,  -55.2,  -55.0,  -55.2,  -55.2,  -55.2,  -55.3,  -55.2,  -55.2,  -55.0,  -55.3,  -55.2,  -55.2
2005/11/24 05:50,  999.0,  999.0,   -4.7,  999.0,   -4.4,   -3.7,   -3.1,   -2.6,  999.0,   -2.8,   -2.3,   -2.5,   -4.0,   -5.2,   -5.9,   -7.5,   -8.8,  -10.8,  -11.6,  -11.6,  -11.8,  -11.9,  -10.7,  -12.5,  -13.3,  -13.4,  -15.1,  999.0,  999.0,  999.0,  999.0,  999.0,  999.0,  999.0,  999.0,  999.0,  999.0,  -55.3,  -55.1,  -55.2,  -55.0,  -54.9,  -55.1,  -55.0,  -55.1,  -55.1,  -55.2,  -55.1,  -55.3,  -55.1,  -55.0,  -55.1,  -55.2,  -55.2,  -55.2,  -55.2,  -55.2,  -55.1,  -55.2,  -55.2,  999.0,  -55.2,  -55.3
2005/11/24 06:00,  999.0,   -2.7,   -4.4,   -5.0,   -4.2,   -3.5,   -2.8,   -2.4,   -2.5,   -2.2,   -2.1,   -2.9,   -4.6,   -5.3,   -6.2,   -6.9,   -9.7,  -10.4,  -11.0,  -12.0,  -12.1,  -12.4,  -11.2,  -12.4,  -13.0,  -13.4,  -15.4,  -17.6,  999.0,  -20.2,  999.0,  999.0,  999.0,  999.0,  999.0,  -55.2,  -55.1,  -54.9,  -54.9,  -55.0,  -55.0,  -55.1,  -55.1,  -55.0,  -54.9,  -55.0,  -55.0,  -55.0,  -54.9,  -55.1,  -55.0,  -55.0,  -55.1,  -55.1,  -55.1,  -55.0,  -55.3,  -55.2,  -55.0,  -54.9,  -55.2,  -55.0,  -55.2
2005/11/24 06:10,  999.0,   -2.8,   -4.3,   -4.7,   -3.8,   -3.4,   -2.8,   -3.1,   -3.8,  999.0,   -3.5,   -3.3,   -4.0,   -5.7,   -6.7,   -8.6,  -10.4,  -11.6,  -11.4,  -12.0,  -12.3,  -11.8,  -10.9,  -12.2,  -12.4,  -12.9,  -15.5,  -18.8,  -19.9,  -20.3,  -21.5,  999.0,  999.0,  999.0,  999.0,  999.0,  999.0,  999.0,  -55.0,  999.0,  -55.0,  -54.8,  -54.8,  -55.1,  -55.1,  -55.0,  -55.2,  -55.1,  -55.0,  -55.1,  -55.1,  -55.2,  999.0,  -55.1,  -55.2,  999.0,  -55.3,  -55.1,  -55.0,  -55.1,  -54.6,  -55.2,  -55.4
2005/11/24 06:20,  999.0,   -3.5,   -4.1,   -4.0,   -3.7,   -3.1,   -2.9,   -2.9,   -2.8,   -2.7,   -2.5,   -3.3,   -4.0,   -5.6,   -6.9,   -8.4,  -10.7,  -11.4,  -11.4,  -11.9,  -12.0,  -11.0,  -10.8,  -12.0,  -12.1,  -13.7,  -16.3,  -19.1,  -20.3,  -20.5,  999.0,  999.0,  999.0,  999.0,  999.0,  999.0,  999.0,  -55.0,  -54.8,  -55.2,  -55.1,  -55.1,  -55.0,  -55.1,  -55.3,  -55.0,  -55.2,  -55.2,  -55.0,  -55.2,  -55.3,  -55.2,  -55.4,  -55.1,  -55.0,  -55.4,  -55.2,  -55.0,  -55.3,  -55.4,  999.0,  -55.3,  -55.1
2005/11/24 06:30,  999.0,   -3.9,   -3.9,   -4.0,   -3.5,   -3.4,   -3.0,   -3.0,   -3.3,   -2.7,   -2.8,   -2.9,   -4.3,   -6.1,   -7.2,   -9.4,  -10.6,  -11.8,  -11.8,  -12.1,  -12.5,  -11.2,  -11.2,  -11.7,  -12.6,  -14.7,  -17.8,  -20.3,  -21.3,  999.0,  999.0,  999.0,  999.0,  999.0,  -27.6,  -27.4,  -38.4,  -33.1,  -55.0,  -44.1,  -38.6,  -38.5,  -41.2,  -38.6,  -38.5,  -38.4,  -38.7,  -38.6,  -34.5,  -38.4,  -55.2,  -34.5,  -34.6,  -41.2,  -55.0,  -45.8,  -33.0,  -34.3,  -41.3,  -46.0,  -48.2,  -38.4,  -55.1
2005/11/24 06:40,  999.0,   -3.4,   -3.7,   -3.7,   -3.7,   -3.6,   -3.1,   -3.0,   -2.8,   -2.6,   -2.4,   -3.4,   -4.8,   -5.4,   -6.1,   -8.9,  -10.5,  -11.6,  -12.2,  -12.9,  -12.4,  -10.9,  -10.8,  -12.0,  -13.3,  -15.9,  -18.3,  -20.3,  -20.8,  -20.8,  999.0,  999.0,  999.0,  999.0,  999.0,  -55.0,  999.0,  -55.1,  -55.1,  -55.2,  -55.1,  -55.1,  -55.1,  -55.1,  -55.1,  -55.1,  -55.1,  -55.2,  -55.2,  -55.2,  -55.2,  -55.1,  -55.2,  -55.2,  -55.2,  -55.5,  -55.3,  -55.2,  -55.4,  -55.1,  -55.1,  -55.3,  -55.3
2005/11/24 06:50,  999.0,   -3.1,   -3.4,   -3.7,   -4.1,   -3.5,   -3.3,   -3.0,   -3.2,   -2.5,   -2.5,   -3.0,   -3.7,  999.0,  999.0,   -8.5,   -9.5,  -11.1,  -11.5,  -12.3,  -12.3,  -10.3,  -10.5,  -12.0,  -13.4,  -15.6,  -17.9,  999.0,  999.0,  999.0,  999.0,  999.0,  999.0,  999.0,  -55.3,  -55.0,  -55.2,  -55.1,  -55.1,  -55.1,  -55.1,  -55.1,  -55.0,  -55.0,  -55.2,  -55.1,  -55.1,  -55.1,  -55.1,  -55.2,  -55.0,  -55.2,  -55.2,  -55.2,  -55.0,  -55.2,  -55.0,  -55.1,  -55.0,  -55.2,  -55.0,  -55.3,  -55.2
2005/11/24 07:00,  999.0,   -3.4,   -3.1,   -3.8,   -3.9,   -3.5,   -2.6,   -2.7,   -3.3,   -2.7,   -2.5,   -2.6,   -3.9,  999.0,  999.0,  999.0,   11.2,    7.7,    3.9,   10.8,    4.0,   19.3,   18.3,  999.0,  999.0,  999.0,  999.0,  999.0,  -44.0,  999.0,  999.0,  -27.5,  -55.1,  -27.6,  -18.3,  -41.4,  -41.4,  -18.3,  -36.8,  -36.8,  -46.1,  -36.8,  -36.8,  -36.8,  -36.9,  -36.8,  -27.6,  -36.8,  -22.9,  -15.3,  -41.5,  -55.3,  -27.6,  -36.9,  -46.1,  -27.7,  -41.5,  -46.1,  -46.3,  -27.4,  -55.3,  -55.9,  -55.1
2005/11/24 07:10,  999.0,    6.9,    6.4,    3.5,   -1.9,    5.0,    5.4,    3.0,    2.3,  999.0,    3.5,  999.0,  999.0,  999.0,  999.0,  999.0,  999.0,  999.0,  999.0,  999.0,  999.0,  999.0,  999.0,  999.0,   54.8,   55.2,   55.2,   55.1,   55.1,   55.1,   55.1,   41.3,   27.5,   55.1,   27.5,   55.0,   55.2,   41.3,   41.4,   55.2,   41.4,   41.4,   55.3,   27.7,   41.4,   27.7,   55.0,   41.4,   55.2,   27.5,   55.0,   55.1,   41.4,   55.1,   55.1,   27.6,   27.4,   27.7,   55.3,   27.5,   55.2,   27.5,   27.7
2005/11/24 07:20,  999.0,    6.6,    7.5,    7.9,    8.8,    8.0,    7.8,    8.4,    8.9,    8.6,    8.8,   10.5,   11.4,   12.7,   15.6,   17.6,  999.0,  999.0,  999.0,  999.0,  999.0,  999.0,  999.0,  999.0,  999.0,   55.0,   55.1,   55.1,   55.1,   55.1,   55.1,   55.1,   55.2,   55.1,   55.1,   55.2,   55.1,   55.1,   55.2,   55.2,   55.2,   55.2,   55.1,   55.3,   55.2,   55.2,   55.1,   55.2,   55.2,   55.3,   55.2,   55.2,   55.2,   55.1,   55.2,   55.3,   55.1,   55.4,   55.1,   55.1,   55.3,   55.2,   55.5
2005/11/24 07:30,  999.0,    6.8,    7.6,    8.6,    8.5,    7.4,    7.2,    8.9,    9.2,    8.5,    9.4,   10.7,    9.8,   11.0,   14.3,   16.3,   16.6,   18.6,  999.0,  999.0,  999.0,  999.0,  999.0,  999.0,  999.0,  999.0,  999.0,   55.1,   55.1,   55.1,   55.0,   55.2,   55.1,   55.1,   55.0,   55.1,   55.1,   55.1,   55.1,   55.2,   55.1,  999.0,   55.3,   55.1,   55.1,   55.2,   55.1,   55.1,   55.3,   55.2,   55.2,   55.3,   55.1,   55.0,   55.2,   55.3,   55.0,   55.2,   55.3,   55.4,   55.1,   55.2,   55.3
2005/11/24 07:40,  999.0,    7.7,    8.2,    9.1,    7.6,    7.3,    9.3,    8.9,    9.0,    9.7,    9.9,    8.9,    9.7,    9.8,   12.1,   15.4,   16.5,  999.0,   17.6,   16.5,   17.3,   19.9,  999.0,  999.0,  999.0,  999.0,  999.0,  999.0,  999.0,  999.0,  999.0,  999.0,   54.9,   55.0,   55.0,   55.1,   55.1,   55.1,   55.3,  999.0,   55.2,   55.0,   55.1,   55.3,   55.2,   55.0,   55.2,   55.2,   55.1,   54.9,   55.2,   55.1,   55.1,   55.2,  999.0,   55.3,   55.0,   55.2,   55.1,   55.3,  999.0,   55.3,   55.2
2005/11/24 07:50,  999.0,    7.3,    7.7,    8.6,    7.0,    7.9,    8.3,    8.9,    8.8,    9.5,    8.8,  999.0,    9.9,    9.6,    9.8,  999.0,   15.0,  999.0,   17.8,   16.3,  999.0,  999.0,  999.0,  999.0,  999.0,  999.0,  999.0,  999.0,  999.0,  999.0,   41.3,   55.1,   55.1,   45.9,   49.7,   45.9,   55.2,   49.7,   48.3,   49.7,   49.6,   48.3,   46.0,   55.3,   49.5,   49.7,   55.3,   45.9,   55.3,   48.4,   48.3,   55.2,   48.4,   55.0,   55.4,   55.2,   49.8,   46.0,   55.0,   55.3,  999.0,   55.5,   55.7
2005/11/24 08:00,  999.0,    7.6,    7.9,    7.5,    7.0,    8.1,    9.0,    9.1,    9.3,    9.3,    8.8,    9.5,   10.3,   10.5,   10.5,  999.0,  999.0,  999.0,  999.0,  999.0,  999.0,  999.0,  999.0,  999.0,  999.0,  999.0,  999.0,  999.0,  999.0,   55.2,   54.9,   55.2,   55.1,   55.2,   55.3,   55.1,   55.2,   55.1,   55.0,   55.1,   55.2,   55.1,   55.2,   55.3,   55.2,   55.1,   55.2,   55.0,   55.3,   55.2,   54.9,   55.2,   55.1,   55.3,   55.2,   55.4,   55.4,   55.3,   55.3,  999.0,  999.0,   55.3,  999.0
2005/11/24 08:10,  999.0,    7.6,    7.4,    5.8,    6.4,    7.8,    8.6,    9.3,    8.9,    8.8,    8.8,    9.2,    9.7,   10.3,  999.0,  999.0,   15.3,   17.8,   17.4,  999.0,   17.9,  999.0,  999.0,  999.0,  999.0,  999.0,  999.0,  999.0,  999.0,  999.0,  999.0,   55.0,   55.1,   55.1,   55.2,   55.1,   55.1,   55.1,   55.1,   55.1,   55.2,   55.2,   55.1,   55.2,   55.1,   55.1,   55.1,   55.1,   55.2,   55.0,   55.1,   55.2,   55.1,   55.1,  999.0,   55.1,   55.1,   55.1,   55.2,   55.2,   55.4,   54.9,   55.2
2005/11/24 08:20,  999.0,    6.8,    7.7,    5.0,    5.1,    7.7,    8.3,    9.0,    8.7,    8.4,    8.8,    9.3,    9.8,   11.0,  999.0,  999.0,  999.0,   17.3,  999.0,   17.1,  999.0,  999.0,  999.0,  999.0,  999.0,  999.0,  999.0,  999.0,  999.0,  999.0,  999.0,   54.9,   55.5,   55.2,   55.1,   55.2,   54.9,   54.9,   55.0,   55.1,   55.4,   55.0,   55.5,  999.0,   55.2,   55.6,  999.0,   55.1,  999.0,   55.3,   55.1,   55.1,  999.0,   55.2,  999.0,  999.0,  999.0,  999.0,   55.2,  999.0,  999.0,   55.1,  999.0
2005/11/24 08:30,  999.0,    7.4,    7.2,    5.8,    5.8,    8.1,    8.5,    8.4,    8.2,    8.1,    8.6,    9.4,   10.0,   10.6,  999.0,  999.0,  999.0,  999.0,   17.1,   17.1,  999.0,  999.0,  999.0,   23.7,  999.0,  999.0,  999.0,  999.0,  999.0,  999.0,  999.0,   54.9,   55.0,   55.2,   55.2,   55.0,   55.1,  999.0,   45.8,   55.1,   41.3,   48.1,   55.1,   48.1,   45.9,   27.6,   36.7,   27.6,   55.4,   55.1,   55.2,   55.1,  999.0,   41.4,   41.5,  999.0,   55.2,   27.3,   36.9,  999.0,   27.3,   36.7,   55.3
2005/11/24 08:40,  999.0,    7.1,    6.1,    5.8,    6.0,    8.4,    8.5,    7.6,    7.7,    8.1,    8.9,    9.4,   10.0,   10.2,  999.0,   13.1,  999.0,   16.6,   16.8,   16.7,  999.0,  999.0,  999.0,   23.0,   24.3,  999.0,  999.0,  999.0,  999.0,  999.0,  999.0,   55.0,   54.8,   54.9,   55.0,   55.0,   55.1,   55.0,   55.0,   55.1,   55.0,   54.8,   55.0,   54.9,   55.0,   55.1,   55.1,   55.1,   55.2,   55.1,  999.0,   55.1,   55.0,   55.1,   55.1,  999.0,   55.2,   55.1,   54.8,   54.9,   55.1,   55.2,   55.2
2005/11/24 08:50,  999.0,    6.1,    4.9,    1.9,    2.7,    7.6,  999.0,    7.3,    7.4,    8.3,    8.5,    9.1,    9.6,   11.1,   11.7,   13.1,  999.0,   17.4,   16.7,   17.1,  999.0,  999.0,  999.0,  999.0,  999.0,  999.0,  999.0,  999.0,  999.0,  999.0,  999.0,  999.0,  999.0,  999.0,  999.0,   55.1,   55.2,   55.1,   55.2,   55.2,   55.1,   55.0,   55.0,   55.1,   55.0,   55.2,   55.2,   55.2,   55.1,   55.3,   55.1,   55.1,   55.2,   54.9,   55.4,   55.0,   55.2,   55.2,   55.2,   55.1,   55.0,   55.1,  999.0
2005/11/24 09:00,  999.0,    4.0,    1.5,    0.6,    1.1,    7.6,    6.8,    6.9,    7.0,    7.6,    8.2,    8.3,    9.3,  999.0,   11.8,   13.8,  999.0,   17.7,   16.2,   16.6,  999.0,  999.0,  999.0,  999.0,  999.0,  999.0,   25.2,  999.0,  999.0,  999.0,  999.0,  999.0,  999.0,   55.0,  999.0,  999.0,   54.9,   55.1,   55.0,   55.0,   55.3,   55.1,   55.0,   55.2,   55.0,   55.1,   55.1,   55.1,  999.0,   54.9,   55.2,   55.0,   55.2,   55.2,   55.1,   55.2,   55.1,   55.0,   55.3,   54.7,   55.4,   54.9,   55.2
2005/11/24 09:10,  999.0,    3.9,    0.9,    0.2,    0.2,    7.3,    6.5,    6.3,    6.6,    7.0,    7.8,    8.1,    7.9,    9.8,   11.3,   13.0,  999.0,  999.0,   16.5,  999.0,  999.0,  999.0,  999.0,  999.0,  999.0,  999.0,  999.0,  999.0,  999.0,  999.0,  999.0,  999.0,  999.0,   55.1,   55.1,   54.9,   55.0,   55.0,   55.0,   55.2,   55.3,   55.1,   55.0,   55.1,   55.2,   55.1,   55.1,   55.2,   55.1,   55.1,   55.1,   55.1,   55.1,   55.2,   55.2,   55.2,   55.2,   54.9,   55.0,   55.2,   55.2,   55.3,  999.0
2005/11/24 09:20,  999.0,    3.2,    1.9,    1.0,    2.2,    7.1,    6.9,  999.0,    6.5,    6.8,    7.2,    7.2,  999.0,    9.3,   10.6,  999.0,  999.0,  999.0,  999.0,  999.0,  999.0,  999.0,  999.0,  999.0,   55.0,  999.0,   55.0,   55.1,   55.1,   55.1,  999.0,  999.0,   55.1,   55.1,   55.1,   55.2,   55.1,   55.1,   55.3,   55.2,   55.1,   55.1,   55.2,   55.2,   55.0,  999.0,   55.2,   55.1,   55.2,   55.3,   55.4,   55.3,   55.2,   55.2,   55.1,  999.0,   55.3,   55.2,  999.0,   55.3,   55.5,  999.0,   55.1
2005/11/24 09:30,  999.0,    2.5,    2.7,    1.6,    1.2,    7.0,    6.6,    4.0,    6.9,    7.2,    7.4,    7.1,    7.2,    8.0,    8.9,  999.0,  999.0,  999.0,  999.0,  999.0,  999.0,  999.0,  999.0,  999.0,  999.0,   55.1,   55.1,   55.1,   55.1,   55.1,   55.2,   55.1,   55.1,   55.1,   55.3,   55.3,   55.2,   55.2,   55.1,   55.1,   55.2,   55.3,   55.2,   55.3,  999.0,   55.3,   55.3,   55.3,   55.5,   55.1,  999.0,   55.3,   55.4,   55.3,   55.3,   55.3,  999.0,   55.4,   55.4,   55.3,  999.0,  999.0,   54.6
2005/11/24 09:40,  999.0,    2.1,    3.0,    1.9,    1.8,    5.9,    3.5,    4.9,    5.7,    6.0,    6.4,    6.6,    6.8,  999.0,  999.0,  999.0,  999.0,  999.0,  999.0,  999.0,  999.0,  999.0,  999.0,  999.0,  999.0,   55.1,   54.9,  999.0,   55.1,  999.0,   54.9,   55.2,  999.0,   55.1,   55.1,   55.1,   54.9,   13.6,   22.0,   27.5,   27.7,   33.0,   20.9,   33.0,   27.6,    9.2,   34.5,   13.9,   36.9,   22.1,   36.8,   27.7,   22.2,   13.9,   18.4,    0.1,   22.1,   55.3,   55.1,   55.4,   55.3,  999.0,  999.0
2005/11/24 09:50,  999.0,    1.3,    1.4,    1.2,    4.0,    6.3,    5.9,    1.0,    6.5,    6.5,    6.5,    6.8,    7.7,    9.0,   10.9,  999.0,  999.0,  999.0,  999.0,  999.0,  999.0,  999.0,  999.0,  999.0,  999.0,  999.0,  999.0,  999.0,  999.0,   55.2,  999.0,   54.9,   55.0,   55.1,  999.0,   55.3,   55.3,   36.7,   27.6,  999.0,   55.2,   41.4,   41.4,   55.3,   36.9,   37.2,   27.5,   55.1,   27.5,  999.0,  999.0,  999.0,  999.0,  999.0,  999.0,  999.0,  999.0,  999.0,  999.0,  999.0,  999.0,  999.0,  999.0
2005/11/24 10:00,  999.0,    1.3,    1.5,  999.0,    3.2,    6.0,    5.7,  999.0,    6.2,    6.8,    6.8,    7.1,    7.9,    9.6,   11.8,   14.3,  999.0,  999.0,  999.0,  999.0,  999.0,  999.0,  999.0,  999.0,  999.0,  999.0,  999.0,  999.0,   55.1,   55.1,   55.1,   55.1,   55.1,   55.1,   55.2,   55.2,   55.2,   55.2,   55.1,   55.3,   55.2,   55.2,   55.2,   55.1,   55.1,   55.1,   55.1,   55.1,  999.0,   55.1,   55.3,   55.2,   55.1,  999.0,   55.2,   55.1,   55.3,   55.2,  999.0,   55.0,  999.0,   55.5,   55.0
2005/11/24 10:10,  999.0,    0.7,    1.9,    3.0,    3.5,    5.5,    6.1,    4.7,  999.0,    6.0,    6.4,    6.6,    7.0,    9.2,   11.0,  999.0,  999.0,  999.0,  999.0,  999.0,  999.0,  999.0,  999.0,  999.0,  999.0,  999.0,  999.0,  999.0,   55.1,   55.1,   55.2,   55.0,   55.1,   55.1,  999.0,   55.0,   55.1,   55.1,   55.2,   54.9,   55.0,   55.1,   55.2,   55.1,   55.0,  999.0,   55.3,   55.1,   55.1,  999.0,   55.4,   55.3,  999.0,   55.3,   55.1,   55.5,   55.2,   55.3,   55.2,   55.2,   55.4,  999.0,  999.0
2005/11/24 10:20,  999.0,    0.7,    1.0,    2.4,    4.2,  999.0,    4.6,    2.9,    5.1,    5.7,    6.3,    7.0,  999.0,    8.9,   10.6,  999.0,  999.0,  999.0,  999.0,  999.0,  999.0,  999.0,  999.0,  999.0,   55.1,   55.2,   55.2,   55.0,   55.1,   55.2,   54.9,   55.1,   55.0,   55.2,   55.2,   55.1,   55.2,   55.1,   55.2,   55.2,   55.2,   55.3,   55.3,   55.0,   55.2,   55.2,   55.1,   55.1,   55.1,   55.2,   55.1,  999.0,  999.0,  999.0,   55.6,   55.0,  999.0,  999.0,   55.3,  999.0,  999.0,  999.0,  999.0
2005/11/24 10:30,  999.0,    0.7,    1.0,    1.7,    2.3,    2.0,    5.7,    5.7,    5.4,    5.7,    6.4,    7.4,  999.0,  999.0,  999.0,  999.0,  999.0,  999.0,  999.0,  999.0,  999.0,  999.0,  999.0,  999.0,  999.0,  999.0,   55.2,   55.2,   55.0,   55.2,   55.1,   55.1,   55.1,   55.2,   55.1,   55.1,   55.1,   55.1,   55.2,   55.2,   55.2,   55.2,   55.1,   55.1,   55.2,   55.0,   55.0,   55.0,   55.1,   55.0,   55.2,   55.3,   55.1,  999.0,   55.3,   55.4,  999.0,   55.3,  999.0,  999.0,  999.0,  999.0,  999.0
2005/11/24 10:40,  999.0,    0.6,    0.8,    1.5,    5.0,    6.2,    5.7,    5.5,    3.6,    5.1,    4.5,  999.0,    6.8,  999.0,  999.0,  999.0,  999.0,  999.0,  999.0,  999.0,  999.0,  999.0,  999.0,  999.0,   55.1,   55.0,   55.1,   55.1,   55.1,   55.1,   55.1,   55.0,   55.0,   55.1,   55.1,   55.2,   55.1,   55.0,   55.2,   55.0,   55.1,   55.0,   55.1,   55.1,   55.1,   55.2,   55.0,   55.1,   55.1,   55.1,   55.1,   55.3,   55.2,   55.2,   55.1,   55.2,   55.2,   55.4,  999.0,  999.0,  999.0,   55.1,  999.0
2005/11/24 10:50,  999.0,    0.6,    0.7,    1.6,    5.1,  999.0,    5.6,    6.2,    4.9,    5.2,  999.0,  999.0,  999.0,  999.0,  999.0,  999.0,  999.0,  999.0,  999.0,  999.0,  999.0,  999.0,   55.0,   55.0,   55.0,   55.1,   55.1,   55.1,   55.1,   55.1,   55.1,   55.2,   55.0,   55.2,   55.1,   55.3,   55.2,   55.2,   54.9,   55.2,   55.3,   55.2,   55.4,   55.2,   55.1,   55.1,   55.1,   55.2,   55.1,   55.1,  999.0,   55.1,  999.0,   55.3,   55.1,  999.0,   55.2,  999.0,  999.0,  999.0,  999.0,  999.0,  999.0
2005/11/24 11:00,  999.0,    1.3,    2.1,    2.1,    4.3,    4.7,    5.8,    5.6,    5.2,    6.1,    5.0,    5.0,  999.0,  999.0,    9.4,   12.0,   15.0,  999.0,  999.0,  999.0,  999.0,  999.0,   55.1,   55.1,   55.1,   55.1,   55.1,   55.1,   55.1,   55.1,   55.2,   55.2,   55.2,   55.2,   55.2,   55.2,   55.2,   55.2,   55.2,   55.3,  999.0,   55.2,   55.3,   55.3,   55.3,   55.3,   55.2,   55.5,   55.0,  999.0,  999.0,   55.3,   55.2,   55.0,   55.2,   55.0,  999.0,  999.0,  999.0,  999.0,  999.0,  999.0,  999.0
2005/11/24 11:10,  999.0,    0.6,    0.9,    0.9,    4.5,    5.4,    5.8,    5.6,    6.0,    6.2,    5.3,    6.8,  999.0,   11.3,   12.1,   12.9,  999.0,  999.0,  999.0,  999.0,  999.0,  999.0,  999.0,  999.0,  999.0,  999.0,   55.0,   55.0,   55.1,   55.1,   55.0,   55.1,   55.2,   55.1,   55.2,   55.0,   55.2,   55.1,   55.0,   55.2,   55.0,   55.0,   55.1,   55.2,   55.2,   54.8,   54.8,   55.0,   55.0,   54.9,   55.1,   54.5,   55.1,   55.3,   55.1,  999.0,  999.0,  999.0,  999.0,  999.0,  999.0,  999.0,  999.0
2005/11/24 11:20,  999.0,  999.0,  999.0,  999.0,    6.0,    6.6,    7.1,    6.3,    6.8,    6.4,    6.0,    6.7,  999.0,  999.0,  999.0,  999.0,  999.0,  999.0,  999.0,  999.0,  999.0,  999.0,  999.0,  999.0,   55.0,   55.0,   55.0,   55.0,   55.1,   55.1,   55.1,   55.1,   55.1,   55.0,   55.3,   55.2,   55.1,   55.3,   55.0,   54.9,   54.9,   55.0,   55.1,   55.0,   55.2,   55.0,   54.8,   55.2,   55.1,   55.2,   55.1,   55.3,   55.1,   55.3,   55.1,   55.2,  999.0,  999.0,  999.0,  999.0,  999.0,  999.0,  999.0
2005/11/24 11:30,  999.0,    0.4,    0.4,    0.6,    5.5,    6.0,    6.3,    6.1,    5.6,    6.2,    5.8,    6.4,  999.0,  999.0,  999.0,  999.0,  999.0,  999.0,  999.0,  999.0,  999.0,  999.0,  999.0,  999.0,   55.1,   55.0,   55.1,   55.1,   55.1,   55.2,   55.1,   55.1,   55.1,   55.2,   55.2,   55.1,   55.2,   55.1,   55.2,   55.2,   55.2,   55.2,   55.3,   55.4,   55.0,   55.2,   55.3,   55.1,   54.9,   55.0,   55.3,   55.2,   55.3,   55.1,  999.0,   55.3,   55.3,  999.0,  999.0,  999.0,  999.0,  999.0,  999.0
2005/11/24 11:40,  999.0,    0.8,    0.5,    0.8,    4.7,    6.0,    6.2,    7.4,    6.0,    6.8,    5.7,    6.4,    7.4,  999.0,    9.8,  999.0,  999.0,  999.0,  999.0,  999.0,  999.0,  999.0,  999.0,  999.0,  999.0,   55.0,   55.1,   55.1,   55.1,   55.1,   55.1,   55.2,   55.2,   55.2,   55.2,   55.4,   55.1,   55.2,   55.4,   55.1,   55.2,   55.2,   54.9,   55.0,   55.2,   54.7,   55.0,   55.1,   54.7,   55.3,  999.0,   55.0,   54.9,   54.8,   55.0,  999.0,  999.0,  999.0,  999.0,  999.0,  999.0,  999.0,  999.0
2005/11/24 11:50,  999.0,    0.6,    0.3,    0.5,    3.1,    5.7,    6.4,    6.9,    6.6,    7.0,    5.6,    5.9,    6.8,    8.5,   10.3,   12.8,   16.2,  999.0,  999.0,  999.0,  999.0,  999.0,  999.0,  999.0,  999.0,   55.1,   55.1,   55.0,   55.1,   55.1,   55.2,   55.2,   55.2,   55.1,   55.2,   55.1,   55.3,   55.2,   55.2,  999.0,   55.1,   55.1,   55.2,   55.0,   55.3,   55.0,   55.2,   55.1,   55.1,   55.2,   55.1,   55.3,   55.0,   55.1,   55.4,   55.0,  999.0,  999.0,   55.2,  999.0,   54.9,  999.0,  999.0
2005/11/24 12:00,  999.0,  999.0,  999.0,    0.2,    0.5,    2.7,    4.6,    6.4,    8.1,    6.2,    5.0,    5.2,    6.5,    8.1,   10.3,   11.7,  999.0,  999.0,  999.0,  999.0,  999.0,  999.0,  999.0,  999.0,  999.0,  999.0,  999.0,  999.0,   55.1,   55.1,   55.2,   55.1,   55.2,   55.3,   55.2,   55.4,   55.2,   55.1,   55.3,   55.3,   55.2,   55.1,   55.1,   55.1,   55.2,   55.1,   55.2,   55.1,   55.5,   55.3,   55.0,   55.4,   55.1,   55.2,   55.1,   55.3,   55.1,  999.0,   55.4,  999.0,  999.0,  999.0,  999.0
2005/11/24 12:10,  999.0,    0.4,    0.3,    0.2,    0.7,    3.9,    4.3,    6.3,    5.8,    6.8,    5.2,    5.3,    6.3,    7.6,    8.9,  999.0,  999.0,   16.9,  999.0,  999.0,  999.0,  999.0,  999.0,  999.0,  999.0,  999.0,   55.1,   55.1,   55.1,   48.2,   55.2,   48.3,   46.0,   48.2,   41.5,   48.3,   41.5,   48.1,   45.9,   46.0,   45.8,   48.2,   55.2,   46.0,   55.0,   55.2,   55.1,   55.4,   55.0,   54.9,   54.9,   55.4,  999.0,   54.6,   55.1,  999.0,  999.0,  999.0,  999.0,  999.0,  999.0,  999.0,  999.0
2005/11/24 12:20,  999.0,    0.3,    0.1,    0.5,    2.1,    3.4,    5.6,    6.3,    5.9,    6.9,    6.4,    6.3,    6.7,    7.5,    9.0,  999.0,   14.5,   16.7,   18.6,  999.0,  999.0,  999.0,  999.0,  999.0,  999.0,   55.1,   55.0,   55.1,   55.1,   55.1,   55.1,   55.1,   55.2,   55.2,   55.2,   55.1,  999.0,   55.1,   55.2,   55.1,   55.4,   55.1,   54.9,   55.3,  999.0,   55.1,   55.0,   55.4,  999.0,   55.2,  999.0,  999.0,   55.2,   55.1,   55.4,  999.0,  999.0,  999.0,  999.0,  999.0,  999.0,  999.0,  999.0
2005/11/24 12:30,  999.0,    0.5,    0.4,    0.4,    0.6,    4.5,    4.9,    5.2,    5.5,    6.4,    6.3,    5.8,    7.2,    7.4,  999.0,   10.8,   14.7,   17.2,   18.9,  999.0,  999.0,  999.0,   54.9,  999.0,   55.1,  999.0,   55.1,   55.2,   55.2,   55.2,   55.2,   55.0,   55.2,   55.2,   55.1,   55.1,   55.1,   55.2,  999.0,   55.3,   55.3,   55.3,   55.3,   55.4,   54.9,   55.2,   55.4,   55.2,   55.3,   55.1,  999.0,   55.6,   55.3,  999.0,   55.0,  999.0,  999.0,  999.0,  999.0,  999.0,  999.0,  999.0,  999.0
2005/11/24 12:40,  999.0,    0.7,    0.2,  999.0,    0.6,    3.8,    4.7,    4.3,    5.1,    6.2,    7.2,    7.8,    6.8,    7.9,    8.0,   10.1,   12.9,   15.5,  999.0,  999.0,  999.0,  999.0,  999.0,  999.0,  999.0,  999.0,   55.1,   55.2,   55.1,   55.2,   55.2,   55.2,   55.2,   55.2,   55.3,   55.2,   55.0,   55.2,   55.2,   55.3,   55.2,   55.0,  999.0,  999.0,   55.0,   55.2,   55.1,  999.0,   55.4,  999.0,  999.0,  999.0,   54.8,  999.0,  999.0,  999.0,  999.0,  999.0,  999.0,  999.0,  999.0,  999.0,  999.0
2005/11/24 12:50,  999.0,    1.2,    0.5,    0.5,    1.7,    4.3,    5.3,    5.0,    5.2,    6.0,    7.0,    7.5,    6.3,    7.0,    8.0,   10.1,   10.9,   15.2,   18.5,   20.1,   21.1,   21.2,  999.0,  999.0,   24.9,  999.0,  999.0,  999.0,  999.0,   54.9,   55.1,   55.1,   55.1,   55.2,   55.0,   55.2,   55.2,   55.1,   55.0,   55.4,   55.3,  999.0,   55.1,   55.0,   55.2,   54.9,   55.2,   55.1,   55.0,   55.2,   55.2,   54.8,  999.0,  999.0,  999.0,  999.0,  999.0,  999.0,  999.0,  999.0,  999.0,  999.0,  999.0
2005/11/24 13:00,  999.0,    0.8,    0.3,    0.3,    1.2,    4.1,    5.3,    5.2,    5.2,    5.3,    5.8,    6.7,    7.3,    8.3,    9.9,   11.0,   14.3,   16.2,   17.1,   18.1,   19.2,   20.9,   20.9,   19.8,  999.0,  999.0,  999.0,  999.0,  999.0,  999.0,  999.0,   55.1,  999.0,   55.2,   55.1,   55.1,   55.2,   55.2,   55.3,   55.3,   55.3,   55.1,   55.2,   55.2,  999.0,  999.0,   55.0,   55.0,   55.1,   55.2,   55.0,   55.1,  999.0,  999.0,  999.0,  999.0,  999.0,  999.0,  999.0,  999.0,  999.0,  999.0,  999.0
2005/11/24 13:10,  999.0,    0.6,    0.8,    0.4,    2.0,    4.4,    4.2,    4.4,    4.9,    5.6,    6.0,    6.2,    6.8,    7.7,    8.3,    9.8,   11.3,   12.6,   14.9,   16.0,   16.7,   17.9,   18.9,   19.2,  999.0,  999.0,  999.0,  999.0,  999.0,  999.0,  999.0,  999.0,  999.0,  999.0,   55.2,   55.3,   55.2,   55.2,   55.3,   55.2,   55.3,   55.1,   55.3,   55.2,   55.4,   55.4,  999.0,   55.0,   55.1,   55.4,   55.3,   55.3,   55.2,  999.0,  999.0,  999.0,   55.4,   54.7,  999.0,  999.0,  999.0,  999.0,  999.0
2005/11/24 13:20,  999.0,    0.6,    0.6,    1.0,    2.1,    4.5,    4.5,    3.8,    5.0,    5.9,    6.7,    7.0,    7.7,    9.4,   10.7,   11.6,   14.3,   15.1,   15.6,   15.9,   17.0,   18.8,  999.0,  999.0,  999.0,  999.0,  999.0,  999.0,   55.1,   55.1,   55.1,   55.2,   55.2,   55.2,   55.3,   55.2,   55.2,   55.3,   55.2,   55.3,   55.2,   55.2,   55.3,   55.3,   54.9,   55.3,   55.2,   55.4,   55.4,  999.0,   54.9,   55.2,   55.7,  999.0,   55.5,  999.0,   55.4,  999.0,  999.0,  999.0,  999.0,  999.0,  999.0
2005/11/24 13:30,  999.0,    0.7,    0.9,    1.2,    3.2,    4.7,    4.3,    5.0,    6.2,    6.9,    7.2,    7.6,    8.1,   10.5,    9.7,   10.0,   13.6,  999.0,  999.0,   15.0,   16.4,   18.0,   19.0,   20.9,  999.0,  999.0,  999.0,  999.0,  999.0,   55.3,  999.0,   55.3,   55.1,   55.2,   55.1,   55.3,   55.2,   55.2,   55.3,   55.2,   55.2,   55.2,   55.2,   55.2,   55.2,   55.3,   55.2,   55.3,   55.1,   55.4,  999.0,   55.0,   55.3,   55.1,   55.4,   55.4,  999.0,  999.0,  999.0,  999.0,  999.0,   55.1,  999.0
2005/11/24 13:40,  999.0,    1.1,    0.7,    0.4,    1.6,    5.4,    5.6,    5.8,    6.1,    6.4,    7.4,    7.4,    7.5,    7.1,    8.5,    8.6,  999.0,  999.0,  999.0,  999.0,  999.0,  999.0,  999.0,  999.0,  999.0,  999.0,  999.0,   55.1,   55.2,   55.2,   55.1,   55.2,   55.2,   55.2,   55.2,   55.1,   55.2,   55.3,   55.3,   55.2,   55.2,   55.2,   55.2,   55.2,   55.1,   55.2,   55.2,   55.1,   55.3,   55.3,  999.0,   54.6,   55.9,  999.0,  999.0,  999.0,   55.2,  999.0,  999.0,  999.0,  999.0,  999.0,  999.0
2005/11/24 13:50,  999.0,    2.4,    0.9,    1.0,    2.5,    4.0,    4.8,    5.2,    5.0,    5.0,    5.5,    5.6,    7.6,    8.5,    8.9,    9.9,   12.2,   13.5,   14.5,   15.7,   16.2,  999.0,  999.0,  999.0,  999.0,  999.0,  999.0,   55.1,  999.0,   55.2,   55.2,   55.2,   55.2,   55.2,   55.1,   55.3,   55.2,   55.3,   55.3,   55.2,   55.4,   55.1,   55.5,  999.0,  999.0,   55.5,   55.5,   55.0,   55.0,  999.0,   55.1,  999.0,   54.7,   55.3,  999.0,  999.0,   55.0,  999.0,  999.0,  999.0,  999.0,   55.5,  999.0
2005/11/24 14:00,  999.0,    0.7,    0.6,    1.4,    1.4,    3.5,    4.4,    5.3,    5.0,    6.1,    6.3,    7.0,    7.8,    8.3,    8.7,   10.0,   12.5,   14.2,   14.3,   16.0,  999.0,  999.0,  999.0,  999.0,  999.0,  999.0,  999.0,  999.0,  999.0,  999.0,  999.0,  999.0,  999.0,  999.0,   55.2,   55.1,   55.3,   55.2,   55.2,   55.2,   55.2,   55.2,   55.1,   55.2,   55.1,   55.0,   55.1,   55.1,   55.1,   55.2,   55.3,   55.3,   55.2,   55.1,   55.5,   55.2,   55.4,  999.0,  999.0,  999.0,  999.0,  999.0,  999.0
2005/11/24 14:10,  999.0,    1.6,    1.3,    1.9,    2.7,    3.2,  999.0,    3.9,    4.7,    4.5,    7.4,    7.9,    9.9,    9.2,  999.0,   11.4,  999.0,   14.2,   15.2,   15.0,   16.0,   16.6,  999.0,  999.0,  999.0,  999.0,  999.0,  999.0,  999.0,  999.0,  999.0,  999.0,  999.0,  999.0,  999.0,   55.2,   55.2,   55.3,   55.3,   55.2,   55.3,   55.3,   55.4,   55.4,   55.3,   55.2,   55.3,   55.3,   55.4,   55.3,   55.5,   55.2,  999.0,   55.1,   54.7,   55.2,  999.0,   55.5,  999.0,  999.0,  999.0,   54.9,  999.0
2005/11/24 14:20,  999.0,    1.5,    3.1,    3.8,    4.4,    5.4,    4.9,    5.1,    5.9,    6.4,    7.2,    8.3,    9.0,   10.4,   10.9,  999.0,  999.0,   13.0,   13.7,   13.6,   13.5,   14.4,  999.0,  999.0,  999.0,  999.0,  999.0,  999.0,  999.0,  999.0,  999.0,   55.2,   55.2,   55.2,   55.1,   55.1,   55.3,   55.3,   55.3,   55.4,   55.3,   55.1,   55.3,   55.3,   55.1,   55.5,   55.1,   55.2,   55.2,   54.9,   54.8,   55.6,   55.0,   55.3,  999.0,   55.2,  999.0,  999.0,  999.0,  999.0,   55.1,  999.0,  999.0
2005/11/24 14:30,  999.0,    2.1,    2.0,    2.5,    3.8,    5.4,    5.1,    3.5,    4.1,    5.4,    6.4,    8.0,    9.4,   10.1,   10.4,   10.4,   13.0,   12.8,   13.7,  999.0,   15.3,  999.0,   15.1,  999.0,  999.0,  999.0,  999.0,  999.0,  999.0,  999.0,  999.0,  999.0,  999.0,  999.0,  999.0,   55.1,   55.0,   55.2,   55.1,   55.3,   55.2,   55.3,   55.3,   55.0,   55.2,   55.2,   54.9,   55.2,   55.5,  999.0,   55.2,   55.3,  999.0,   55.2,   55.6,  999.0,   55.5,  999.0,  999.0,  999.0,  999.0,  999.0,  999.0
2005/11/24 14:40,  999.0,    2.3,    3.3,    3.5,    5.6,    6.4,    5.9,    5.6,    5.2,    6.4,    7.5,    8.3,    9.6,   10.1,   10.4,   12.2,   12.5,   13.8,  999.0,  999.0,  999.0,  999.0,  999.0,  999.0,  999.0,  999.0,  999.0,   55.2,   55.2,   55.1,   55.2,   55.2,   55.1,   55.2,   55.2,   55.2,   55.3,   55.3,   55.2,   55.3,   55.3,   55.2,   55.3,   55.3,   55.3,   55.3,   55.1,   55.3,   55.3,  999.0,   55.2,   55.1,  999.0,   55.2,   55.2,  999.0,  999.0,   54.6,  999.0,   54.9,  999.0,  999.0,  999.0
2005/11/24 14:50,  999.0,    2.4,    2.1,    2.6,    4.4,    5.3,    5.9,    5.5,    5.7,    6.3,    7.1,    7.9,    8.9,    9.4,   10.4,   11.3,   12.0,  999.0,  999.0,  999.0,  999.0,  999.0,  999.0,  999.0,  999.0,  999.0,  999.0,  999.0,  999.0,   55.3,   55.2,   55.2,   55.2,   55.2,   55.3,   55.3,   55.2,   55.4,   55.3,   55.2,   55.4,   55.2,   55.2,   55.3,   55.2,   55.3,   55.2,   55.3,   55.2,   55.3,   55.2,   55.2,   55.3,   55.2,  999.0,   55.5,   55.1,  999.0,   55.2,   55.1,  999.0,  999.0,  999.0
2005/11/24 15:00,  999.0,    1.6,    2.6,    3.2,    4.4,    5.5,    6.1,    6.2,    6.5,    7.2,    7.7,    8.9,   10.1,   10.8,   10.9,   10.8,   12.1,  999.0,  999.0,  999.0,  999.0,  999.0,  999.0,  999.0,  999.0,  999.0,  999.0,  999.0,   55.1,   55.1,   55.2,   55.1,   55.2,   55.3,   55.3,   55.3,   55.1,   55.4,   55.5,   55.2,   55.3,   55.1,   55.3,   55.2,   55.2,   55.1,   55.1,   55.4,   55.2,   55.0,   55.4,   55.1,   55.3,   55.2,  999.0,   55.3,  999.0,   55.3,  999.0,  999.0,  999.0,  999.0,  999.0
2005/11/24 15:10,  999.0,    1.4,    2.7,    3.8,    4.5,    4.9,  999.0,    6.6,    6.6,    7.6,    8.5,    9.5,    9.9,   10.1,   10.1,    9.8,   12.5,  999.0,   12.3,   12.4,  999.0,  999.0,  999.0,  999.0,  999.0,  999.0,  999.0,  999.0,  999.0,   55.3,   55.2,   55.2,   55.2,   55.2,   55.2,   55.3,   55.2,   55.2,   55.2,   55.2,  999.0,   55.3,   55.1,   55.1,   55.1,   55.1,   55.2,   55.3,   55.0,   55.2,  999.0,   55.3,  999.0,  999.0,   55.1,  999.0,   55.2,   55.3,   55.2,  999.0,  999.0,  999.0,  999.0
2005/11/24 15:20,  999.0,    1.8,    2.2,    3.1,    2.6,  999.0,    6.0,    6.3,    6.5,    7.3,    8.3,    8.3,    8.5,    8.6,    8.5,   10.1,   11.7,  999.0,   11.1,  999.0,  999.0,  999.0,  999.0,  999.0,  999.0,  999.0,  999.0,  999.0,   55.2,   55.1,   55.3,   55.2,   55.3,   55.3,   55.2,   55.2,   55.2,   55.3,   55.3,   55.1,   55.1,  999.0,  999.0,   55.5,   55.1,  999.0,   55.1,   55.0,   55.4,   55.2,   55.1,  999.0,   55.2,   55.4,   55.5,  999.0,   55.2,  999.0,  999.0,  999.0,  999.0,  999.0,  999.0
2005/11/24 15:30,  999.0,    2.8,    2.7,    3.2,    4.4,    5.2,    5.5,    5.7,    6.0,    7.3,    8.0,    8.4,    8.9,    9.3,    9.9,   10.5,   10.4,   10.8,   10.9,  999.0,  999.0,  999.0,  999.0,  999.0,  999.0,  999.0,  999.0,  999.0,  999.0,  999.0,   55.2,   55.2,   55.2,   55.2,   55.2,   55.2,   55.4,   55.2,   55.3,   55.2,   55.2,   55.3,  999.0,   55.3,   55.3,   55.3,   55.0,   55.3,   55.9,   55.3,   55.4,  999.0,   55.1,  999.0,  999.0,   55.1,  999.0,   55.2,   55.2,  999.0,  999.0,   55.3,  999.0
2005/11/24 15:40,  999.0,    2.4,    4.0,    3.2,    2.6,    5.3,    5.1,    5.8,    6.4,    7.2,    7.9,    8.2,    8.5,    9.7,   10.2,  999.0,    9.5,  999.0,    9.5,  999.0,  999.0,  999.0,  999.0,  999.0,  999.0,  999.0,  999.0,  999.0,  999.0,  999.0,  999.0,  999.0,  999.0,  999.0,   55.1,   55.2,   55.3,   55.2,   55.2,   55.3,   55.4,   55.2,  999.0,  999.0,   55.3,   55.0,   55.0,   55.3,   55.2,   55.3,   55.4,   55.2,   55.3,  999.0,   55.5,  999.0,   55.7,  999.0,  999.0,  999.0,   55.2,  999.0,  999.0
2005/11/24 15:50,  999.0,    2.3,    2.7,    3.3,    4.3,    5.6,    6.5,    7.1,    7.0,    7.2,    7.6,    8.3,    8.4,    9.4,    9.6,    9.3,    9.0,  999.0,    8.7,  999.0,  999.0,  999.0,  999.0,  999.0,  999.0,  999.0,  999.0,  999.0,  999.0,  999.0,  999.0,  999.0,  999.0,   55.2,   55.3,   55.2,   55.2,   55.4,   55.1,   55.2,   55.4,   55.3,   55.2,   55.4,   55.3,   55.2,   55.3,   55.2,   55.4,   54.9,   55.2,   55.2,  999.0,  999.0,   55.1,  999.0,   55.3,   55.0,  999.0,   55.4,  999.0,  999.0,  999.0
2005/11/24 16:00,  999.0,    2.6,    2.4,    3.9,    4.3,    6.0,    6.8,    7.6,    8.2,    7.5,    7.6,    7.6,    8.1,    9.1,    9.6,    9.7,  999.0,  999.0,  999.0,  999.0,  999.0,  999.0,  999.0,   55.2,   55.2,   55.2,   55.1,   55.1,   55.2,   55.1,   55.3,   55.2,   55.2,   55.2,   55.3,   55.2,   55.2,   55.2,   55.3,   55.3,   55.3,   55.3,   55.3,   55.2,   55.4,   55.3,   55.3,  999.0,   55.4,   55.5,   55.3,   55.4,   55.7,  999.0,   55.1,  999.0,  999.0,  999.0,  999.0,  999.0,  999.0,  999.0,  999.0
2005/11/24 16:10,  999.0,    3.5,    3.3,    4.1,    5.8,    6.3,    6.9,    7.1,    7.1,    7.1,    7.4,    8.1,    8.6,    9.1,    9.2,    9.4,    8.2,  999.0,  999.0,  999.0,  999.0,  999.0,  999.0,  999.0,  999.0,  999.0,   55.2,   55.2,   55.2,   55.2,   55.2,   55.2,   55.2,   55.2,   55.3,   55.2,   55.2,   55.2,   55.2,   55.3,   55.3,   55.4,   55.3,   55.3,   55.2,   55.1,   55.5,   55.4,   55.4,   55.4,  999.0,   55.3,  999.0,  999.0,  999.0,  999.0,  999.0,  999.0,  999.0,  999.0,  999.0,  999.0,  999.0
2005/11/24 16:20,  999.0,    4.0,    3.7,    5.3,    5.9,    5.9,    5.9,    6.8,    7.1,    7.2,    7.4,    8.2,    9.6,    9.8,    9.8,    9.8,  999.0,  999.0,  999.0,  999.0,  999.0,  999.0,  999.0,  999.0,  999.0,  999.0,  999.0,   55.1,  999.0,   55.2,   55.2,   55.3,   55.2,   55.3,   55.2,   55.2,   55.6,   55.2,   55.2,   55.4,   55.4,   55.2,   55.6,   55.5,   55.4,   55.3,   55.5,   55.2,  999.0,  999.0,  999.0,  999.0,  999.0,  999.0,  999.0,   55.8,  999.0,  999.0,  999.0,  999.0,  999.0,  999.0,  999.0
2005/11/24 16:30,  999.0,    3.6,    5.2,    5.2,    4.9,    5.0,    5.3,    6.0,    6.9,    7.9,    7.5,    8.4,    9.0,    9.5,    9.1,    8.0,  999.0,  999.0,  999.0,  999.0,  999.0,  999.0,  999.0,  999.0,  999.0,  999.0,  999.0,  999.0,  999.0,   55.1,   55.1,   55.2,   55.2,   55.2,   55.4,   55.2,   55.2,   55.2,   55.2,  999.0,  999.0,  999.0,  999.0,  999.0,   55.3,  999.0,  999.0,  999.0,   55.2,   55.1,   55.5,   55.4,   55.4,   55.2,  999.0,   54.7,   55.1,  999.0,  999.0,  999.0,  999.0,  999.0,  999.0
2005/11/24 16:40,  999.0,    4.0,    4.6,    4.3,    3.3,    4.2,    4.5,    5.5,    6.6,    7.3,    6.8,    7.5,    7.6,    8.0,    8.0,    7.1,    6.8,  999.0,  999.0,  999.0,  999.0,  999.0,  999.0,  999.0,  999.0,  999.0,  999.0,  999.0,  999.0,  999.0,  999.0,   55.1,   55.3,   55.3,   55.3,   55.3,   55.3,   55.3,   55.4,   55.3,   55.3,   55.3,   55.3,   55.2,   55.1,  999.0,   55.1,   55.2,  999.0,   55.5,   55.2,   55.1,   55.5,  999.0,  999.0,  999.0,   55.1,  999.0,  999.0,  999.0,  999.0,  999.0,  999.0
2005/11/24 16:50,  999.0,    3.2,    3.0,    4.0,    2.5,    3.8,    4.9,  999.0,  999.0,    8.2,    7.9,    8.4,    8.3,    8.3,  999.0,    8.7,  999.0,  999.0,  999.0,  999.0,  999.0,  999.0,  999.0,  999.0,  999.0,  999.0,  999.0,   55.1,   55.1,   55.3,   55.2,   55.2,   55.3,   55.2,   55.2,  999.0,   55.2,   55.3,   55.2,   55.3,   55.2,  999.0,   55.2,  999.0,   54.9,  999.0,  999.0,  999.0,   55.4,  999.0,   55.3,   55.2,  999.0,  999.0,  999.0,  999.0,  999.0,  999.0,  999.0,  999.0,  999.0,  999.0,  999.0
2005/11/24 17:00,  999.0,    2.9,    3.1,    2.9,    2.3,    3.5,  999.0,  999.0,  999.0,    6.3,  999.0,    7.5,    8.1,    8.3,    8.6,    8.8,    6.4,  999.0,  999.0,  999.0,  999.0,  999.0,  999.0,  999.0,  999.0,  999.0,  999.0,  999.0,  999.0,  999.0,  999.0,   55.2,   55.2,   55.3,   55.2,   55.2,   55.2,   55.3,   55.2,   55.3,   55.3,   55.2,   55.3,   55.3,   55.4,   55.2,   55.3,   55.3,   55.2,   55.4,  999.0,   55.0,   55.4,  999.0,  999.0,  999.0,  999.0,  999.0,  999.0,  999.0,  999.0,  999.0,  999.0
2005/11/24 17:10,  999.0,    3.8,    2.5,    2.5,    2.9,    4.9,  999.0,    5.6,    5.2,  999.0,    7.2,    7.9,    8.0,    8.0,    8.9,    7.2,  999.0,  999.0,  999.0,  999.0,  999.0,  999.0,  999.0,  999.0,  999.0,  999.0,  999.0,  999.0,  999.0,  999.0,  999.0,  999.0,  999.0,   41.4,   55.2,   55.5,   46.1,   48.5,   46.1,   46.2,   46.1,   41.5,   41.4,  999.0,   41.7,   55.5,   55.4,  999.0,  999.0,  999.0,  999.0,  999.0,   54.9,  999.0,  999.0,  999.0,  999.0,  999.0,  999.0,  999.0,  999.0,  999.0,  999.0
2005/11/24 17:20,  999.0,    1.1,    1.3,    2.2,    2.9,    3.2,    3.2,    4.5,    5.7,    6.7,    7.7,    7.8,    8.3,    9.0,    8.7,    8.5,  999.0,  999.0,  999.0,  999.0,  999.0,  999.0,  999.0,  999.0,  999.0,  999.0,  999.0,  999.0,  999.0,  999.0,  999.0,  999.0,  999.0,   41.4,   41.4,   46.0,   49.8,   48.4,   48.4,   48.5,   55.6,  999.0,   55.1,   46.3,   55.2,  999.0,  999.0,   41.8,  999.0,  999.0,  999.0,   46.1,  999.0,   55.5,  999.0,   55.3,   54.8,  999.0,  999.0,  999.0,  999.0,  999.0,  999.0
2005/11/24 17:30,  999.0,   -0.3,    0.7,    2.3,    3.5,    4.6,    4.1,    4.6,    6.0,    6.7,    7.2,    7.2,    7.0,    7.5,  999.0,    5.9,  999.0,  999.0,  999.0,  999.0,  999.0,  999.0,  999.0,  999.0,  999.0,  999.0,  999.0,  999.0,  999.0,  999.0,  999.0,  999.0,  999.0,   55.2,   55.4,   55.2,   55.2,   55.2,   55.2,   55.4,   55.3,   55.3,   55.1,  999.0,   55.4,   55.4,   55.3,  999.0,  999.0,  999.0,  999.0,  999.0,  999.0,   55.7,  999.0,  999.0,  999.0,  999.0,  999.0,  999.0,  999.0,  999.0,  999.0
2005/11/24 17:40,  999.0,    3.8,    4.4,    5.7,    4.2,    8.1,    4.8,    5.7,    8.4,    7.6,    7.6,    8.0,    8.6,    8.2,    6.4,    5.6,  999.0,  999.0,  999.0,  999.0,  999.0,  999.0,  999.0,  999.0,  999.0,  999.0,  999.0,  999.0,  999.0,  999.0,  999.0,   55.3,   55.3,   55.2,   55.2,   55.2,   55.2,   55.3,   55.4,   55.3,   55.3,   55.4,   55.2,   55.3,   55.6,   55.2,  999.0,  999.0,   55.5,   55.5,  999.0,  999.0,  999.0,  999.0,  999.0,  999.0,  999.0,  999.0,  999.0,  999.0,  999.0,  999.0,  999.0
2005/11/24 17:50,  999.0,   -0.0,    1.9,    2.2,    1.2,    2.9,    4.7,    5.5,    6.8,    7.7,    7.6,    8.0,    8.0,    7.2,  999.0,  999.0,  999.0,  999.0,  999.0,  999.0,  999.0,  999.0,  999.0,  999.0,  999.0,  999.0,   55.1,   55.2,   55.2,   55.3,   55.2,   55.2,   55.3,   55.2,   55.3,   55.4,   55.2,   55.2,   55.4,   55.3,   55.3,   55.3,   55.2,  999.0,  999.0,  999.0,   55.4,  999.0,  999.0,  999.0,  999.0,  999.0,  999.0,  999.0,  999.0,   55.0,  999.0,  999.0,  999.0,  999.0,  999.0,  999.0,  999.0
2005/11/24 18:00,  999.0,    1.0,    2.4,    0.4,    0.4,    2.4,    4.1,    5.1,    6.9,    7.5,    7.5,    8.1,    7.5,    6.4,    5.0,    5.5,    6.8,  999.0,  999.0,  999.0,  999.0,    8.0,  999.0,  999.0,  999.0,  999.0,  999.0,  999.0,  999.0,  999.0,   55.2,   41.4,   41.4,   48.4,   41.4,   48.4,   46.0,   41.5,   34.6,   41.6,   46.0,   48.4,   55.4,   46.2,   27.7,   55.6,   41.4,  999.0,  999.0,  999.0,  999.0,  999.0,  999.0,  999.0,  999.0,  999.0,  999.0,  999.0,  999.0,  999.0,  999.0,  999.0,  999.0
2005/11/24 18:10,  999.0,    1.1,    0.8,    1.8,  999.0,  999.0,    4.6,    6.2,    7.4,    7.3,  999.0,    7.8,    7.1,    5.7,    5.1,    6.2,    7.5,    7.6,    7.8,    6.4,    7.0,    7.6,  999.0,  999.0,  999.0,  999.0,  999.0,  999.0,  999.0,  999.0,  999.0,  999.0,   27.6,   55.2,  999.0,  999.0,   46.0,   46.1,   55.4,   55.2,   41.5,  999.0,   55.3,   41.6,  999.0,  999.0,  999.0,  999.0,  999.0,  999.0,  999.0,  999.0,  999.0,  999.0,  999.0,  999.0,  999.0,  999.0,  999.0,  999.0,  999.0,  999.0,  999.0
2005/11/24 18:20,  999.0,    1.3,  999.0,  999.0,    1.5,    1.7,    4.5,    4.8,    5.8,    7.0,    7.4,    7.4,    7.1,    5.3,    5.5,    5.8,    7.0,    7.1,    8.3,    7.1,    6.5,    7.1,  999.0,  999.0,  999.0,  999.0,  999.0,  999.0,  999.0,  999.0,  999.0,  999.0,   55.2,  999.0,  999.0,  999.0,   55.4,   55.3,   55.2,   55.4,   55.4,   55.3,   55.5,   55.4,  999.0,   54.9,   54.9,  999.0,  999.0,  999.0,  999.0,  999.0,  999.0,  999.0,  999.0,  999.0,  999.0,  999.0,  999.0,  999.0,  999.0,  999.0,  999.0
2005/11/24 18:30,  999.0,    1.2,    1.1,    2.0,    2.6,    3.3,    4.8,    5.4,    6.8,  999.0,    7.3,    7.0,    6.9,    6.1,    5.5,    5.9,    7.0,  999.0,    8.1,    7.7,    8.0,  999.0,  999.0,  999.0,  999.0,  999.0,  999.0,  999.0,  999.0,  999.0,  999.0,  999.0,  999.0,  999.0,  999.0,   55.3,   55.1,   55.3,   55.3,   55.2,  999.0,   55.2,   55.3,  999.0,   55.4,   54.9,   55.4,   55.5,  999.0,  999.0,  999.0,  999.0,  999.0,  999.0,  999.0,  999.0,   55.3,  999.0,  999.0,  999.0,  999.0,  999.0,  999.0
2005/11/24 18:40,  999.0,    1.2,    2.2,    0.7,    2.4,    4.3,    5.1,    6.4,    6.7,    6.7,    6.6,    7.1,    7.1,    6.6,    6.0,    5.8,    6.1,    7.1,    7.2,    7.5,    8.0,  999.0,  999.0,  999.0,  999.0,  999.0,  999.0,  999.0,  999.0,  999.0,  999.0,  999.0,  999.0,  999.0,  999.0,  999.0,  999.0,  999.0,  999.0,   55.0,   55.4,   55.3,   55.5,   55.2,   55.2,   55.4,   55.4,   55.2,  999.0,  999.0,  999.0,  999.0,  999.0,  999.0,  999.0,  999.0,  999.0,  999.0,  999.0,  999.0,  999.0,  999.0,  999.0
2005/11/24 18:50,  999.0,    1.3,    1.4,    1.8,    3.5,    4.5,    5.5,    6.2,    6.7,    6.5,    6.4,    7.1,    6.7,    6.5,    6.3,    6.2,  999.0,  999.0,    7.2,    7.7,  999.0,  999.0,  999.0,  999.0,  999.0,  999.0,   55.2,   55.2,   55.2,  999.0,   55.2,  999.0,  999.0,   55.5,  999.0,  999.0,  999.0,  999.0,  999.0,  999.0,   55.4,  999.0,  999.0,  999.0,  999.0,  999.0,  999.0,   55.3,  999.0,  999.0,  999.0,  999.0,  999.0,  999.0,   55.5,  999.0,  999.0,  999.0,  999.0,  999.0,  999.0,  999.0,  999.0
2005/11/24 19:00,  999.0,    0.9,    1.3,    1.2,    1.5,    4.2,    5.1,    5.3,    6.2,    6.4,    6.4,  999.0,    6.3,    6.9,  999.0,  999.0,  999.0,  999.0,  999.0,  999.0,  999.0,  999.0,  999.0,  999.0,  999.0,   55.2,   55.2,   55.2,   55.1,   55.2,   55.3,   55.3,   55.3,   55.1,   55.3,   55.3,   55.2,  999.0,   37.0,   55.4,  999.0,  999.0,  999.0,  999.0,  999.0,  999.0,  999.0,  999.0,  999.0,  999.0,  999.0,  999.0,  999.0,  999.0,  999.0,  999.0,  999.0,  999.0,  999.0,  999.0,  999.0,  999.0,  999.0
2005/11/24 19:10,  999.0,    0.3,    1.8,    0.6,    0.8,    4.8,    5.3,  999.0,    5.8,    7.2,    6.7,  999.0,  999.0,  999.0,    6.4,  999.0,    6.9,  999.0,  999.0,  999.0,  999.0,  999.0,  999.0,  999.0,  999.0,  999.0,   55.2,  999.0,   55.3,   55.2,   55.3,   55.2,   55.3,   55.2,   55.3,   55.2,   55.2,   55.4,   55.4,   55.3,   55.4,   55.3,   55.2,   55.6,   55.4,  999.0,  999.0,   55.1,  999.0,  999.0,  999.0,  999.0,  999.0,  999.0,  999.0,  999.0,  999.0,  999.0,  999.0,  999.0,  999.0,  999.0,  999.0
2005/11/24 19:20,  999.0,    0.3,    0.3,    0.9,    0.8,    4.5,  999.0,    5.0,    7.0,  999.0,  999.0,  999.0,    5.3,    6.2,    7.6,    7.4,    6.6,  999.0,    6.7,  999.0,  999.0,  999.0,  999.0,  999.0,  999.0,  999.0,  999.0,  999.0,   55.2,   55.2,   55.3,   55.3,   55.3,   55.3,   55.5,   55.3,  999.0,  999.0,  999.0,  999.0,  999.0,  999.0,  999.0,  999.0,  999.0,  999.0,  999.0,  999.0,  999.0,  999.0,  999.0,  999.0,  999.0,  999.0,  999.0,  999.0,  999.0,  999.0,  999.0,  999.0,  999.0,  999.0,  999.0
2005/11/24 19:30,  999.0,    0.9,  999.0,    0.6,    0.6,  999.0,    4.6,    5.2,    6.5,    7.4,    6.5,    5.3,    5.0,    6.2,    7.4,  999.0,    6.5,    6.8,    7.2,  999.0,  999.0,  999.0,  999.0,  999.0,  999.0,   55.2,   55.2,   55.2,   55.1,   55.2,   55.3,   55.3,   55.2,   55.3,   55.2,   55.3,   55.3,   55.3,  999.0,  999.0,  999.0,  999.0,   55.5,   55.4,   55.8,   55.5,  999.0,  999.0,  999.0,  999.0,  999.0,  999.0,  999.0,  999.0,  999.0,  999.0,  999.0,  999.0,  999.0,  999.0,  999.0,  999.0,  999.0
2005/11/24 19:40,  999.0,    2.1,    1.0,  999.0,    2.8,    3.2,    4.0,    5.0,    6.6,    7.4,    6.5,    5.5,    5.5,  999.0,    6.5,  999.0,    5.9,    5.5,  999.0,  999.0,  999.0,  999.0,  999.0,  999.0,  999.0,  999.0,   55.2,   55.1,   55.2,   55.2,   55.3,   55.2,   46.0,   27.6,   18.3,   36.8,   18.4,   18.3,  999.0,    9.4,   13.8,   13.8,   27.9,  999.0,  999.0,  999.0,  999.0,  999.0,  999.0,  999.0,  999.0,  999.0,  999.0,  999.0,  999.0,  999.0,  999.0,  999.0,  999.0,  999.0,  999.0,  999.0,  999.0
2005/11/24 19:50,  999.0,    2.1,    1.4,    0.2,   -0.4,  999.0,    5.2,    5.1,    6.7,    7.1,    9.1,    6.5,    6.7,    8.0,    6.8,  999.0,  999.0,  999.0,  999.0,  999.0,  999.0,  999.0,  999.0,  999.0,  999.0,  999.0,  999.0,  999.0,   55.2,   55.3,   55.2,   55.2,   55.2,   55.3,  999.0,  999.0,   27.7,   27.7,  999.0,  999.0,  999.0,  999.0,   27.7,  999.0,  999.0,  999.0,  999.0,  999.0,  999.0,  999.0,  999.0,  999.0,  999.0,  999.0,  999.0,  999.0,  999.0,  999.0,  999.0,  999.0,  999.0,  999.0,  999.0
2005/11/24 20:00,  999.0,  999.0,  999.0,  999.0,  999.0,  999.0,  999.0,  999.0,  999.0,  999.0,  999.0,  999.0,    5.7,    6.5,  999.0,  999.0,  999.0,  999.0,  999.0,  999.0,  999.0,  999.0,  999.0,  999.0,  999.0,  999.0,  999.0,  999.0,   13.7,    5.5,    5.5,   11.0,    0.0,   11.0,    9.3,    7.0,   -0.1,   -0.1,  999.0,  999.0,  999.0,  999.0,  999.0,  999.0,  999.0,  999.0,  999.0,  999.0,  999.0,  999.0,  999.0,  999.0,  999.0,  999.0,  999.0,  999.0,  999.0,  999.0,  999.0,  999.0,  999.0,  999.0,  999.0
2005/11/24 20:10,  999.0,    2.0,    0.7,    2.9,    3.3,    4.1,  999.0,  999.0,    7.6,    8.2,    6.7,  999.0,  999.0,    5.9,  999.0,  999.0,  999.0,  999.0,  999.0,  999.0,  999.0,  999.0,  999.0,  999.0,  999.0,   55.2,   55.1,   55.2,   54.8,   55.3,   55.2,  999.0,  999.0,   55.2,  999.0,  999.0,  999.0,  999.0,  999.0,  999.0,  999.0,  999.0,  999.0,  999.0,  999.0,  999.0,  999.0,  999.0,  999.0,  999.0,  999.0,  999.0,  999.0,  999.0,  999.0,  999.0,  999.0,  999.0,  999.0,  999.0,  999.0,  999.0,  999.0
2005/11/24 20:20,  999.0,  999.0,    1.3,    1.9,    2.8,  999.0,  999.0,    6.6,    7.6,    7.7,  999.0,  999.0,  999.0,  999.0,  999.0,    6.7,    5.7,  999.0,  999.0,  999.0,  999.0,  999.0,  999.0,  999.0,  999.0,  999.0,  999.0,   27.6,   41.4,   36.8,   41.4,   18.5,   55.2,   34.6,   27.8,   20.5,   34.6,   20.7,  999.0,  -13.9,   13.9,  999.0,  999.0,    0.1,  999.0,   13.7,  999.0,  999.0,  999.0,  999.0,  999.0,  999.0,  999.0,  999.0,  999.0,  999.0,  999.0,  999.0,  999.0,  999.0,  999.0,  999.0,  999.0
2005/11/24 20:30,  999.0,    1.6,    1.1,    1.8,    0.9,  999.0,  999.0,  999.0,    7.9,    5.8,    6.5,  999.0,  999.0,  999.0,  999.0,  999.0,  999.0,    7.1,  999.0,  999.0,  999.0,  999.0,  999.0,  999.0,  999.0,  999.0,  999.0,   27.5,   27.5,   36.8,   36.8,   27.7,  999.0,  999.0,  999.0,  999.0,  999.0,  999.0,  999.0,  999.0,  999.0,  999.0,  999.0,  999.0,  999.0,  999.0,  999.0,  999.0,  999.0,  999.0,  999.0,  999.0,  999.0,  999.0,  999.0,  999.0,    0.1,  999.0,  999.0,  999.0,  999.0,  999.0,  999.0
2005/11/24 20:40,  999.0,    3.7,    2.3,    4.0,  999.0,  999.0,    6.4,    6.7,    7.4,    7.6,    6.9,    5.9,    6.1,    6.1,    6.7,    7.0,    7.6,  999.0,    9.6,  999.0,  999.0,  999.0,  999.0,  999.0,  999.0,   27.6,  999.0,   55.0,   34.5,   38.6,   27.6,   41.4,   33.2,   55.3,   38.8,   38.8,   36.9,   34.5,   48.4,  999.0,   36.9,   55.3,   41.5,  999.0,  999.0,  999.0,  999.0,  999.0,  999.0,  999.0,  999.0,  999.0,  999.0,  999.0,  999.0,  999.0,  999.0,  999.0,  999.0,  999.0,  999.0,  999.0,  999.0
2005/11/24 20:50,  999.0,    3.6,    2.1,    3.3,    1.3,    6.2,    6.2,    7.0,    7.2,    6.6,    6.9,    7.3,    6.9,  999.0,    7.5,    8.1,    7.9,    7.3,  999.0,  999.0,  999.0,  999.0,  999.0,  999.0,  999.0,  999.0,  999.0,   55.3,   55.3,   55.2,   55.3,   55.2,   55.2,   55.3,   55.2,   55.3,   55.2,  999.0,  999.0,  999.0,  999.0,  999.0,  999.0,  999.0,  999.0,  999.0,  999.0,  999.0,  999.0,  999.0,  999.0,  999.0,  999.0,  999.0,  999.0,  999.0,  999.0,  999.0,  999.0,  999.0,  999.0,  999.0,  999.0
2005/11/24 21:00,  999.0,    3.5,    4.2,    3.4,    1.5,    6.1,    6.3,  999.0,    7.1,    7.0,    7.3,    8.2,    7.9,    8.0,    7.3,    7.2,    7.1,  999.0,  999.0,  999.0,  999.0,  999.0,  999.0,  999.0,  999.0,  999.0,   55.2,   55.2,   41.5,   44.3,   55.2,   55.3,   55.3,   55.2,   55.3,   55.4,   55.4,   55.4,   55.5,   55.4,   55.5,   55.4,   55.1,   55.4,  999.0,  999.0,  999.0,  999.0,  999.0,  999.0,  999.0,  999.0,  999.0,  999.0,  999.0,  999.0,  999.0,  999.0,  999.0,  999.0,  999.0,  999.0,  999.0
2005/11/24 21:10,  999.0,   -0.3,    3.4,    3.2,    2.5,    5.3,    6.1,    6.4,    7.2,    7.1,    7.7,    8.2,  999.0,    8.9,  999.0,  999.0,  999.0,  999.0,  999.0,  999.0,  999.0,  999.0,  999.0,  999.0,  999.0,   55.1,   55.3,   55.2,   55.2,   55.2,   55.1,   55.3,   55.3,   55.2,   55.4,   55.4,  999.0,   55.4,  999.0,  999.0,  999.0,  999.0,  999.0,  999.0,  999.0,  999.0,  999.0,  999.0,  999.0,  999.0,  999.0,  999.0,  999.0,  999.0,  999.0,  999.0,  999.0,  999.0,  999.0,  999.0,  999.0,  999.0,  999.0
2005/11/24 21:20,  999.0,  999.0,    3.2,    3.6,    2.3,    5.9,    6.3,    5.9,    7.7,    7.3,    7.5,    8.3,    8.3,    7.8,    6.5,  999.0,  999.0,  999.0,  999.0,  999.0,  999.0,  999.0,  999.0,  999.0,  999.0,   55.1,  999.0,   53.5,   55.2,   55.2,   55.2,   55.3,   55.2,   55.2,   55.3,  999.0,   55.2,   55.4,  999.0,  999.0,  999.0,  999.0,   55.4,  999.0,  999.0,  999.0,  999.0,  999.0,  999.0,  999.0,  999.0,  999.0,  999.0,  999.0,  999.0,  999.0,  999.0,  999.0,  999.0,  999.0,  999.0,  999.0,  999.0
2005/11/24 21:30,  999.0,    1.1,    2.3,    2.6,    2.4,    5.4,    5.7,    6.2,    7.6,    7.8,    8.3,    8.5,    8.7,    7.7,  999.0,    6.2,  999.0,  999.0,  999.0,  999.0,  999.0,  999.0,  999.0,  999.0,  999.0,  999.0,  999.0,  999.0,  999.0,  999.0,  999.0,  999.0,  999.0,  999.0,  999.0,  999.0,  999.0,  999.0,  999.0,  999.0,  999.0,  999.0,  999.0,  999.0,  999.0,  999.0,  999.0,  999.0,  999.0,  999.0,  999.0,  999.0,  999.0,  999.0,  999.0,  999.0,  999.0,  999.0,  999.0,  999.0,  999.0,  999.0,  999.0
2005/11/24 21:40,  999.0,    2.2,    2.2,    3.9,    5.8,    6.4,    6.2,    6.9,    8.0,    8.0,    7.6,    8.1,    8.2,  999.0,    7.2,    6.6,  999.0,  999.0,  999.0,  999.0,  999.0,  999.0,  999.0,  999.0,  999.0,   55.2,  999.0,   55.2,   55.2,   55.2,   55.2,   55.2,   55.2,   55.3,   55.2,   55.4,   55.4,   55.3,   54.9,  999.0,  999.0,  999.0,  999.0,  999.0,  999.0,  999.0,  999.0,  999.0,  999.0,  999.0,  999.0,   55.1,  999.0,  999.0,  999.0,  999.0,  999.0,  999.0,  999.0,  999.0,  999.0,  999.0,  999.0
2005/11/24 21:50,  999.0,    3.4,    3.7,    5.9,    6.4,    6.3,    6.8,    7.4,    7.7,    8.1,    7.6,    7.7,    7.4,    6.9,    6.6,    6.7,  999.0,  999.0,  999.0,  999.0,  999.0,  999.0,  999.0,  999.0,   55.2,   55.1,   55.2,   55.2,   55.3,   55.2,   55.2,   55.2,   55.4,   55.2,   55.2,   55.3,   55.3,   55.4,   55.3,  999.0,  999.0,  999.0,  999.0,  999.0,  999.0,  999.0,  999.0,  999.0,  999.0,  999.0,  999.0,  999.0,   55.3,  999.0,  999.0,  999.0,  999.0,  999.0,  999.0,  999.0,  999.0,  999.0,  999.0
2005/11/24 22:00,  999.0,    3.6,    3.9,    4.1,    4.9,    6.6,    6.6,  999.0,    7.5,  999.0,    7.4,    7.4,    7.7,  999.0,    7.0,  999.0,  999.0,  999.0,  999.0,  999.0,  999.0,  999.0,  999.0,  999.0,  999.0,   55.2,   55.2,   55.2,   55.2,   55.2,   55.3,   55.3,  999.0,  999.0,   55.2,   55.4,  999.0,  999.0,  999.0,  999.0,  999.0,  999.0,  999.0,  999.0,  999.0,  999.0,  999.0,  999.0,  999.0,  999.0,  999.0,  999.0,  999.0,   54.8,  999.0,  999.0,   55.2,  999.0,  999.0,  999.0,  999.0,  999.0,  999.0
2005/11/24 22:10,  999.0,    3.3,    5.4,    6.0,    7.0,    6.8,    7.5,    7.4,    7.5,    8.8,    7.6,    7.0,    7.4,    6.6,    6.3,    7.2,  999.0,  999.0,  999.0,  999.0,  999.0,  999.0,  999.0,  999.0,  999.0,  999.0,  999.0,   55.3,   55.3,  999.0,   55.3,   55.3,   55.3,  999.0,   55.3,   55.2,   55.4,   55.3,   55.6,  999.0,  999.0,   55.9,  999.0,  999.0,  999.0,   55.7,  999.0,  999.0,  999.0,  999.0,   55.3,  999.0,  999.0,  999.0,   55.0,  999.0,  999.0,  999.0,  999.0,  999.0,  999.0,  999.0,  999.0
2005/11/24 22:20,  999.0,    3.9,    3.2,    5.6,    5.6,    6.9,    7.4,    6.9,    7.2,    9.1,    8.0,    7.1,    7.8,    6.6,    6.4,    7.2,  999.0,  999.0,  999.0,  999.0,  999.0,  999.0,  999.0,  999.0,  999.0,   55.1,   55.1,   55.2,   55.2,   55.2,  999.0,   55.2,   55.1,   55.2,   55.1,   55.4,   55.3,   55.6,  999.0,  999.0,  999.0,  999.0,  999.0,  999.0,  999.0,  999.0,  999.0,  999.0,  999.0,  999.0,  999.0,  999.0,  999.0,  999.0,  999.0,  999.0,  999.0,  999.0,  999.0,  999.0,  999.0,  999.0,  999.0
2005/11/24 22:30,  999.0,    1.3,    4.0,    5.3,    5.3,    7.6,    6.5,    6.9,    8.6,    9.2,    7.9,    7.9,    7.9,    6.6,    6.0,    6.9,  999.0,  999.0,  999.0,  999.0,  999.0,  999.0,  999.0,  999.0,  999.0,  999.0,  999.0,  999.0,  999.0,  999.0,  999.0,  999.0,   55.3,   55.4,   55.4,   55.5,   55.1,   55.5,  999.0,  999.0,  999.0,  999.0,  999.0,  999.0,  999.0,  999.0,  999.0,  999.0,  999.0,  999.0,  999.0,  999.0,  999.0,  999.0,  999.0,  999.0,  999.0,  999.0,  999.0,  999.0,  999.0,  999.0,  999.0
2005/11/24 22:40,  999.0,    1.7,    2.0,    3.6,    6.5,    8.1,    7.4,  999.0,    9.3,    8.7,    8.6,    7.9,    7.0,    6.0,    6.0,    7.1,  999.0,  999.0,  999.0,  999.0,  999.0,  999.0,  999.0,  999.0,  999.0,  999.0,  999.0,  999.0,   55.5,   55.1,   55.2,   55.2,   55.3,   55.3,  999.0,   55.3,   55.2,  999.0,  999.0,  999.0,  999.0,  999.0,  999.0,  999.0,  999.0,  999.0,  999.0,  999.0,  999.0,  999.0,  999.0,  999.0,  999.0,  999.0,  999.0,  999.0,  999.0,  999.0,  999.0,  999.0,  999.0,  999.0,  999.0
2005/11/24 22:50,  999.0,    3.6,    2.2,    4.7,    7.1,    8.1,    7.6,  999.0,    9.2,    8.9,    8.6,    8.3,    6.9,    6.6,    7.0,  999.0,  999.0,  999.0,  999.0,  999.0,  999.0,  999.0,  999.0,  999.0,  999.0,  999.0,  999.0,   55.3,  999.0,   55.3,   55.3,   55.3,   55.2,   55.3,   55.3,   55.4,   55.3,  999.0,   55.5,  999.0,  999.0,  999.0,  999.0,  999.0,  999.0,  999.0,  999.0,  999.0,  999.0,  999.0,  999.0,  999.0,  999.0,  999.0,  999.0,  999.0,  999.0,  999.0,  999.0,  999.0,  999.0,  999.0,  999.0
2005/11/24 23:00,  999.0,    2.9,    4.2,    6.4,    7.6,    8.0,    8.0,  999.0,    9.1,    9.0,    8.6,    7.9,    7.4,    6.9,    7.7,    8.5,  999.0,  999.0,  999.0,  999.0,  999.0,  999.0,  999.0,  999.0,  999.0,  999.0,  999.0,  999.0,  999.0,  999.0,  999.0,  999.0,  999.0,   18.4,   13.8,    0.1,   -0.1,   -0.1,  999.0,  999.0,  999.0,  999.0,  999.0,  999.0,  999.0,  999.0,  999.0,  999.0,  999.0,  999.0,  999.0,  999.0,  999.0,  999.0,  999.0,  999.0,  999.0,  999.0,  999.0,  999.0,  999.0,  999.0,  999.0
2005/11/24 23:10,  999.0,    2.8,    5.5,    6.7,    7.8,    8.0,    8.3,    8.8,    9.0,    8.6,    8.2,    7.3,    7.3,    7.3,    7.4,  999.0,    7.5,    8.5,  999.0,  999.0,  999.0,  999.0,  999.0,  999.0,  999.0,  999.0,  999.0,  999.0,  999.0,  999.0,  999.0,  999.0,  999.0,  999.0,  999.0,  999.0,  999.0,   -0.1,  999.0,    0.5,  999.0,   -0.0,  999.0,  999.0,  999.0,  999.0,  999.0,  999.0,  999.0,  999.0,  999.0,  999.0,  999.0,  999.0,  999.0,  999.0,  999.0,  999.0,  999.0,  999.0,  999.0,  999.0,  999.0
2005/11/24 23:20,  999.0,  999.0,    4.2,    6.2,    7.9,    7.8,    7.7,    8.6,    8.7,    8.9,    8.1,    7.7,    7.0,    7.5,    7.3,  999.0,  999.0,  999.0,  999.0,  999.0,  999.0,  999.0,  999.0,  999.0,  999.0,  999.0,  999.0,   55.2,  999.0,  999.0,   55.3,   55.2,   55.3,   55.3,   55.4,  999.0,   55.3,  999.0,  999.0,  999.0,  999.0,  999.0,  999.0,  999.0,  999.0,  999.0,  999.0,  999.0,  999.0,  999.0,  999.0,  999.0,  999.0,  999.0,  999.0,  999.0,  999.0,  999.0,  999.0,  999.0,  999.0,  999.0,  999.0
2005/11/24 23:30,  999.0,    2.1,    5.5,    6.8,    7.6,    7.8,    8.1,    8.7,    8.6,    8.4,    7.9,    6.3,    6.5,    7.2,    7.3,  999.0,  999.0,  999.0,  999.0,  999.0,  999.0,  999.0,  999.0,  999.0,  999.0,  999.0,  999.0,  999.0,  999.0,  999.0,  999.0,   55.2,   55.2,   55.1,   55.3,   55.4,   55.4,   55.2,   55.4,  999.0,  999.0,  999.0,  999.0,  999.0,  999.0,  999.0,  999.0,  999.0,  999.0,  999.0,  999.0,  999.0,  999.0,  999.0,  999.0,  999.0,  999.0,  999.0,  999.0,  999.0,  999.0,  999.0,  999.0
2005/11/24 23:40,  999.0,    2.1,    2.5,    6.3,    7.4,    8.3,    7.7,    8.5,    8.8,    8.6,    8.0,    6.6,    6.4,  999.0,    7.0,  999.0,  999.0,  999.0,  999.0,  999.0,  999.0,  999.0,  999.0,  999.0,  999.0,  999.0,   55.2,  999.0,   55.3,   55.3,   55.3,   55.3,  999.0,   55.3,   55.4,   56.1,   55.4,   55.3,  999.0,   55.5,   55.5,  999.0,   55.5,  999.0,  999.0,  999.0,  999.0,  999.0,  999.0,  999.0,  999.0,  999.0,  999.0,  999.0,  999.0,  999.0,  999.0,  999.0,  999.0,  999.0,  999.0,  999.0,  999.0
2005/11/24 23:50,  999.0,  999.0,    2.7,    6.0,    7.5,    8.1,    7.6,    8.7,    9.4,    8.6,    8.1,    7.1,  999.0,  999.0,  999.0,  999.0,  999.0,  999.0,  999.0,  999.0,  999.0,  999.0,  999.0,   55.2,  999.0,   55.1,   55.2,   55.3,   55.2,   55.2,   55.3,   55.2,   55.3,   55.2,   55.4,   55.5,   55.4,   55.4,   55.3,  999.0,  999.0,  999.0,  999.0,  999.0,  999.0,  999.0,  999.0,  999.0,  999.0,  999.0,  999.0,  999.0,  999.0,  999.0,  999.0,   55.1,  999.0,  999.0,  999.0,  999.0,  999.0,  999.0,  999.0
